Observation data for McCamey on 11/19/2019      Previous  Date  Next       Current Mesonet Observations  Soil Data  Daily Summary Page  Observations in Plain Language
KMC4 190600Z 09003KT 11/03 A2998 RMK A01 T01050029  RH  059%=      5-min Rain = 0
KMC4 190601Z 10003KT 11/03 A2998 RMK A01 T01050028  RH  059%=      5-min Rain = 0
KMC4 190602Z 10003KT 11/03 A2998 RMK A01 T01060028  RH  059%=      5-min Rain = 0
KMC4 190603Z 10003KT 11/03 A2998 RMK A01 T01070029  RH  058%=      5-min Rain = 0
KMC4 190604Z 10003KT 11/03 A2998 RMK A01 T01090029  RH  058%=      5-min Rain = 0
KMC4 190605Z 09003KT 11/03 A2998 RMK A01 T01100029  RH  057%=      5-min Rain = 0
KMC4 190606Z 09003KT 11/03 A2998 RMK A01 T01100030  RH  058%=      5-min Rain = 0
KMC4 190607Z 09003KT 11/03 A2998 RMK A01 T01090030  RH  058%=      5-min Rain = 0
KMC4 190608Z 09003KT 11/03 A2998 RMK A01 T01080030  RH  059%=      5-min Rain = 0
KMC4 190609Z 09003KT 11/03 A2998 RMK A01 T01080030  RH  059%=      5-min Rain = 0
KMC4 190610Z 09003KT 11/03 A2998 RMK A01 T01090031  RH  058%=      5-min Rain = 0
KMC4 190611Z 09003KT 11/03 A2998 RMK A01 T01110031  RH  058%=      5-min Rain = 0
KMC4 190612Z 09003KT 11/03 A2998 RMK A01 T01110032  RH  058%=      5-min Rain = 0
KMC4 190613Z 08003KT 11/03 A2998 RMK A01 T01110032  RH  058%=      5-min Rain = 0
KMC4 190614Z 08003KT 11/03 A2998 RMK A01 T01120032  RH  058%=      5-min Rain = 0
KMC4 190615Z 08003KT 11/03 A2998 RMK A01 T01120032  RH  058%=      5-min Rain = 0
KMC4 190616Z 07003KT 11/03 A2998 RMK A01 T01120032  RH  058%=      5-min Rain = 0
KMC4 190617Z 07003KT 11/03 A2998 RMK A01 T01120033  RH  058%=      5-min Rain = 0
KMC4 190618Z 07003KT 11/03 A2998 RMK A01 T01120033  RH  058%=      5-min Rain = 0
KMC4 190619Z 06003KT 11/03 A2998 RMK A01 T01130034  RH  058%=      5-min Rain = 0
KMC4 190620Z 06003KT 11/03 A2998 RMK A01 T01130034  RH  058%=      5-min Rain = 0
KMC4 190621Z 06003KT 11/03 A2998 RMK A01 T01130034  RH  058%=      5-min Rain = 0
KMC4 190622Z 05003KT 11/03 A2998 RMK A01 T01130034  RH  058%=      5-min Rain = 0
KMC4 190623Z 05003KT 11/03 A2998 RMK A01 T01140034  RH  058%=      5-min Rain = 0
KMC4 190624Z 05003KT 11/03 A2998 RMK A01 T01140034  RH  058%=      5-min Rain = 0
KMC4 190625Z 05003KT 11/04 A2998 RMK A01 T01130035  RH  058%=      5-min Rain = 0
KMC4 190626Z 06003KT 11/04 A2998 RMK A01 T01120035  RH  059%=      5-min Rain = 0
KMC4 190627Z 06003KT 11/04 A2998 RMK A01 T01110035  RH  059%=      5-min Rain = 0
KMC4 190628Z 05003KT 11/04 A2998 RMK A01 T01100035  RH  060%=      5-min Rain = 0
KMC4 190629Z 05003KT 11/04 A2998 RMK A01 T01110035  RH  060%=      5-min Rain = 0
KMC4 190630Z 04003KT 11/04 A2998 RMK A01 T01110035  RH  060%=      5-min Rain = 0
KMC4 190631Z 04003KT 11/04 A2998 RMK A01 T01110035  RH  059%=      5-min Rain = 0
KMC4 190632Z 05003KT 11/04 A2998 RMK A01 T01100036  RH  060%=      5-min Rain = 0
KMC4 190633Z 05003KT 11/04 A2998 RMK A01 T01090036  RH  061%=      5-min Rain = 0
KMC4 190634Z 05004KT 11/04 A2998 RMK A01 T01090036  RH  060%=      5-min Rain = 0
KMC4 190635Z 05004KT 11/04 A2998 RMK A01 T01090036  RH  060%=      5-min Rain = 0
KMC4 190636Z 06004KT 11/04 A2998 RMK A01 T01080035  RH  061%=      5-min Rain = 0
KMC4 190637Z 06003KT 11/04 A2998 RMK A01 T01070036  RH  061%=      5-min Rain = 0
KMC4 190638Z 05003KT 11/04 A2998 RMK A01 T01070036  RH  062%=      5-min Rain = 0
KMC4 190639Z 05003KT 11/04 A2998 RMK A01 T01080037  RH  061%=      5-min Rain = 0
KMC4 190640Z 05003KT 11/04 A2998 RMK A01 T01090037  RH  061%=      5-min Rain = 0
KMC4 190641Z 05003KT 11/04 A2998 RMK A01 T01090038  RH  061%=      5-min Rain = 0
KMC4 190642Z 04003KT 11/04 A2998 RMK A01 T01100038  RH  061%=      5-min Rain = 0
KMC4 190643Z 04003KT 11/04 A2998 RMK A01 T01110038  RH  061%=      5-min Rain = 0
KMC4 190644Z 04003KT 11/04 A2998 RMK A01 T01120038  RH  061%=      5-min Rain = 0
KMC4 190645Z 04003KT 11/04 A2998 RMK A01 T01130039  RH  060%=      5-min Rain = 0
KMC4 190646Z 04003KT 11/04 A2998 RMK A01 T01140039  RH  060%=      5-min Rain = 0
KMC4 190647Z 05003KT 12/04 A2998 RMK A01 T01150039  RH  060%=      5-min Rain = 0
KMC4 190648Z 04003KT 12/04 A2998 RMK A01 T01150039  RH  059%=      5-min Rain = 0
KMC4 190649Z 04003KT 12/04 A2998 RMK A01 T01150038  RH  060%=      5-min Rain = 0
KMC4 190650Z 04003KT 11/04 A2998 RMK A01 T01140039  RH  060%=      5-min Rain = 0
KMC4 190651Z 04002KT 11/04 A2998 RMK A01 T01130038  RH  060%=      5-min Rain = 0
KMC4 190652Z 05002KT 11/04 A2998 RMK A01 T01110039  RH  061%=      5-min Rain = 0
KMC4 190653Z 04003KT 11/04 A2999 RMK A01 T01100039  RH  061%=      5-min Rain = 0
KMC4 190654Z 04003KT 11/04 A2999 RMK A01 T01110039  RH  061%=      5-min Rain = 0
KMC4 190655Z 04003KT 11/04 A2999 RMK A01 T01100039  RH  061%=      5-min Rain = 0
KMC4 190656Z 03002KT 11/04 A2999 RMK A01 T01100039  RH  061%=      5-min Rain = 0
KMC4 190657Z 04003KT 11/04 A2999 RMK A01 T01100039  RH  061%=      5-min Rain = 0
KMC4 190658Z 04002KT 11/04 A2999 RMK A01 T01100039  RH  062%=      5-min Rain = 0
KMC4 190659Z 04003KT 11/04 A2999 RMK A01 T01090039  RH  062%=      5-min Rain = 0
KMC4 190700Z 05002KT 11/04 A2999 RMK A01 T01080039  RH  062%=      5-min Rain = 0
KMC4 190701Z 04002KT 11/04 A2999 RMK A01 T01070039  RH  063%=      5-min Rain = 0
KMC4 190702Z 04002KT 11/04 A2999 RMK A01 T01070039  RH  063%=      5-min Rain = 0
KMC4 190703Z 04002KT 11/04 A2999 RMK A01 T01070039  RH  063%=      5-min Rain = 0
KMC4 190704Z 04002KT 11/04 A2999 RMK A01 T01070039  RH  063%=      5-min Rain = 0
KMC4 190705Z 04002KT 10/04 A2999 RMK A01 T01040038  RH  064%=      5-min Rain = 0
KMC4 190706Z 06001KT 10/04 A2999 RMK A01 T01030038  RH  064%=      5-min Rain = 0
KMC4 190707Z 07001KT 10/04 A2999 RMK A01 T01020039  RH  065%=      5-min Rain = 0
KMC4 190708Z 06000KT 10/04 A2999 RMK A01 T01010039  RH  065%=      5-min Rain = 0
KMC4 190709Z 00000KT 10/04 A2999 RMK A01 T01010039  RH  065%=      5-min Rain = 0
KMC4 190710Z 03000KT 10/04 A2999 RMK A01 T01010039  RH  065%=      5-min Rain = 0
KMC4 190711Z 03001KT 10/04 A2999 RMK A01 T01010039  RH  065%=      5-min Rain = 0
KMC4 190712Z 04001KT 10/04 A2999 RMK A01 T01010039  RH  065%=      5-min Rain = 0
KMC4 190713Z 03001KT 10/04 A2999 RMK A01 T01010039  RH  065%=      5-min Rain = 0
KMC4 190714Z 03002KT 10/04 A2999 RMK A01 T01010040  RH  066%=      5-min Rain = 0
KMC4 190715Z 04002KT 10/04 A2999 RMK A01 T01000039  RH  066%=      5-min Rain = 0
KMC4 190716Z 05002KT 10/04 A2999 RMK A01 T00990039  RH  066%=      5-min Rain = 0
KMC4 190717Z 05001KT 10/04 A2999 RMK A01 T01000039  RH  066%=      5-min Rain = 0
KMC4 190718Z 05001KT 10/04 A2999 RMK A01 T01000039  RH  066%=      5-min Rain = 0
KMC4 190719Z 05002KT 10/04 A2999 RMK A01 T01000039  RH  065%=      5-min Rain = 0
KMC4 190720Z 06001KT 10/04 A2999 RMK A01 T00990039  RH  066%=      5-min Rain = 0
KMC4 190721Z 08001KT 10/04 A2998 RMK A01 T00990040  RH  066%=      5-min Rain = 0
KMC4 190722Z 09001KT 10/04 A2998 RMK A01 T00980039  RH  067%=      5-min Rain = 0
KMC4 190723Z 07000KT 10/04 A2998 RMK A01 T00970039  RH  067%=      5-min Rain = 0
KMC4 190724Z 05001KT 10/04 A2999 RMK A01 T00980039  RH  067%=      5-min Rain = 0
KMC4 190725Z 04001KT 10/04 A2999 RMK A01 T00990040  RH  067%=      5-min Rain = 0
KMC4 190726Z 05001KT 10/04 A2999 RMK A01 T00990040  RH  067%=      5-min Rain = 0
KMC4 190727Z 04002KT 10/04 A2999 RMK A01 T00990040  RH  067%=      5-min Rain = 0
KMC4 190728Z 04002KT 10/04 A2998 RMK A01 T00980040  RH  067%=      5-min Rain = 0
KMC4 190729Z 04002KT 10/04 A2998 RMK A01 T00980040  RH  067%=      5-min Rain = 0
KMC4 190730Z 05002KT 10/04 A2998 RMK A01 T01000041  RH  067%=      5-min Rain = 0
KMC4 190731Z 04002KT 10/04 A2998 RMK A01 T01010041  RH  066%=      5-min Rain = 0
KMC4 190732Z 04002KT 10/04 A2998 RMK A01 T01020041  RH  066%=      5-min Rain = 0
KMC4 190733Z 04002KT 10/04 A2998 RMK A01 T01030041  RH  065%=      5-min Rain = 0
KMC4 190734Z 05002KT 11/04 A2998 RMK A01 T01050041  RH  065%=      5-min Rain = 0
KMC4 190735Z 05002KT 10/04 A2998 RMK A01 T01030040  RH  065%=      5-min Rain = 0
KMC4 190736Z 05003KT 10/04 A2998 RMK A01 T00990040  RH  067%=      5-min Rain = 0
KMC4 190737Z 05003KT 10/04 A2998 RMK A01 T00970040  RH  068%=      5-min Rain = 0
KMC4 190738Z 05003KT 10/04 A2998 RMK A01 T00960040  RH  068%=      5-min Rain = 0
KMC4 190739Z 05003KT 10/04 A2998 RMK A01 T00960040  RH  068%=      5-min Rain = 0
KMC4 190740Z 05003KT 10/04 A2998 RMK A01 T00950040  RH  068%=      5-min Rain = 0
KMC4 190741Z 05003KT 10/04 A2998 RMK A01 T00950040  RH  068%=      5-min Rain = 0
KMC4 190742Z 05003KT 10/04 A2998 RMK A01 T00960040  RH  068%=      5-min Rain = 0
KMC4 190743Z 05003KT 10/04 A2998 RMK A01 T00960040  RH  068%=      5-min Rain = 0
KMC4 190744Z 04003KT 10/04 A2998 RMK A01 T00970040  RH  068%=      5-min Rain = 0
KMC4 190745Z 04003KT 10/04 A2998 RMK A01 T00980041  RH  068%=      5-min Rain = 0
KMC4 190746Z 04003KT 10/04 A2998 RMK A01 T00980041  RH  067%=      5-min Rain = 0
KMC4 190747Z 05003KT 10/04 A2998 RMK A01 T00990041  RH  067%=      5-min Rain = 0
KMC4 190748Z 06002KT 10/04 A2998 RMK A01 T00990041  RH  067%=      5-min Rain = 0
KMC4 190749Z 07002KT 10/04 A2998 RMK A01 T00990041  RH  067%=      5-min Rain = 0
KMC4 190750Z 06002KT 10/04 A2998 RMK A01 T00980040  RH  067%=      5-min Rain = 0
KMC4 190751Z 06002KT 10/04 A2998 RMK A01 T00980041  RH  067%=      5-min Rain = 0
KMC4 190752Z 06002KT 10/04 A2998 RMK A01 T00980040  RH  067%=      5-min Rain = 0
KMC4 190753Z 06002KT 10/04 A2998 RMK A01 T00990041  RH  067%=      5-min Rain = 0
KMC4 190754Z 07002KT 10/04 A2998 RMK A01 T00990041  RH  067%=      5-min Rain = 0
KMC4 190755Z 07002KT 10/04 A2998 RMK A01 T00990041  RH  067%=      5-min Rain = 0
KMC4 190756Z 07002KT 10/04 A2998 RMK A01 T00980041  RH  067%=      5-min Rain = 0
KMC4 190757Z 06003KT 10/04 A2998 RMK A01 T00970040  RH  068%=      5-min Rain = 0
KMC4 190758Z 06003KT 10/04 A2998 RMK A01 T00960040  RH  068%=      5-min Rain = 0
KMC4 190759Z 06003KT 10/04 A2998 RMK A01 T00950040  RH  069%=      5-min Rain = 0
KMC4 190800Z 06003KT 10/04 A2998 RMK A01 T00950040  RH  069%=      5-min Rain = 0
KMC4 190801Z 06002KT 10/04 A2998 RMK A01 T00950041  RH  069%=      5-min Rain = 0
KMC4 190802Z 06002KT 10/04 A2998 RMK A01 T00970041  RH  068%=      5-min Rain = 0
KMC4 190803Z 06002KT 10/04 A2998 RMK A01 T00980041  RH  068%=      5-min Rain = 0
KMC4 190804Z 06002KT 10/04 A2998 RMK A01 T00990041  RH  067%=      5-min Rain = 0
KMC4 190805Z 06002KT 10/04 A2998 RMK A01 T00990041  RH  067%=      5-min Rain = 0
KMC4 190806Z 05003KT 10/04 A2998 RMK A01 T00990041  RH  067%=      5-min Rain = 0
KMC4 190807Z 04004KT 10/04 A2998 RMK A01 T00980040  RH  067%=      5-min Rain = 0
KMC4 190808Z 04004KT 10/04 A2998 RMK A01 T00970040  RH  068%=      5-min Rain = 0
KMC4 190809Z 05003KT 10/04 A2998 RMK A01 T00960040  RH  068%=      5-min Rain = 0
KMC4 190810Z 06003KT 10/04 A2998 RMK A01 T00960040  RH  068%=      5-min Rain = 0
KMC4 190811Z 05003KT 10/04 A2998 RMK A01 T00970041  RH  068%=      5-min Rain = 0
KMC4 190812Z 05002KT 10/04 A2998 RMK A01 T00970040  RH  068%=      5-min Rain = 0
KMC4 190813Z 04002KT 10/04 A2998 RMK A01 T00980041  RH  068%=      5-min Rain = 0
KMC4 190814Z 04002KT 10/04 A2998 RMK A01 T00980041  RH  068%=      5-min Rain = 0
KMC4 190815Z 03002KT 10/04 A2998 RMK A01 T00980041  RH  068%=      5-min Rain = 0
KMC4 190816Z 04003KT 10/04 A2998 RMK A01 T00990042  RH  067%=      5-min Rain = 0
KMC4 190817Z 03003KT 10/04 A2998 RMK A01 T01000042  RH  067%=      5-min Rain = 0
KMC4 190818Z 03003KT 10/04 A2998 RMK A01 T00990041  RH  067%=      5-min Rain = 0
KMC4 190819Z 05003KT 10/04 A2998 RMK A01 T00980041  RH  067%=      5-min Rain = 0
KMC4 190820Z 05003KT 10/04 A2998 RMK A01 T00980042  RH  068%=      5-min Rain = 0
KMC4 190821Z 05003KT 10/04 A2998 RMK A01 T00970041  RH  068%=      5-min Rain = 0
KMC4 190822Z 05003KT 10/04 A2998 RMK A01 T00980042  RH  068%=      5-min Rain = 0
KMC4 190823Z 05003KT 10/04 A2998 RMK A01 T00980041  RH  068%=      5-min Rain = 0
KMC4 190824Z 06003KT 10/04 A2998 RMK A01 T00990042  RH  068%=      5-min Rain = 0
KMC4 190825Z 05003KT 10/04 A2998 RMK A01 T00990042  RH  068%=      5-min Rain = 0
KMC4 190826Z 04003KT 10/04 A2997 RMK A01 T00980042  RH  068%=      5-min Rain = 0
KMC4 190827Z 05003KT 10/04 A2997 RMK A01 T00970041  RH  068%=      5-min Rain = 0
KMC4 190828Z 05004KT 10/04 A2997 RMK A01 T00960041  RH  068%=      5-min Rain = 0
KMC4 190829Z 06004KT 10/04 A2997 RMK A01 T00950041  RH  069%=      5-min Rain = 0
KMC4 190830Z 07004KT 10/04 A2997 RMK A01 T00950041  RH  069%=      5-min Rain = 0
KMC4 190831Z 06004KT 10/04 A2997 RMK A01 T00950041  RH  069%=      5-min Rain = 0
KMC4 190832Z 07004KT 10/04 A2997 RMK A01 T00950041  RH  069%=      5-min Rain = 0
KMC4 190833Z 06004KT 09/04 A2997 RMK A01 T00940041  RH  069%=      5-min Rain = 0
KMC4 190834Z 06004KT 09/04 A2997 RMK A01 T00930041  RH  070%=      5-min Rain = 0
KMC4 190835Z 06004KT 09/04 A2997 RMK A01 T00920041  RH  070%=      5-min Rain = 0
KMC4 190836Z 05003KT 09/04 A2997 RMK A01 T00920041  RH  071%=      5-min Rain = 0
KMC4 190837Z 05003KT 09/04 A2997 RMK A01 T00920041  RH  071%=      5-min Rain = 0
KMC4 190838Z 06003KT 09/04 A2997 RMK A01 T00930042  RH  070%=      5-min Rain = 0
KMC4 190839Z 06003KT 10/04 A2997 RMK A01 T00960043  RH  070%=      5-min Rain = 0
KMC4 190840Z 05003KT 10/04 A2997 RMK A01 T00980043  RH  069%=      5-min Rain = 0
KMC4 190841Z 05003KT 10/04 A2997 RMK A01 T01000043  RH  068%=      5-min Rain = 0
KMC4 190842Z 05003KT 10/04 A2997 RMK A01 T01010043  RH  067%=      5-min Rain = 0
KMC4 190843Z 05003KT 10/04 A2997 RMK A01 T01020043  RH  067%=      5-min Rain = 0
KMC4 190844Z 05003KT 10/04 A2997 RMK A01 T01020042  RH  067%=      5-min Rain = 0
KMC4 190845Z 05003KT 10/04 A2997 RMK A01 T01030043  RH  066%=      5-min Rain = 0
KMC4 190846Z 05002KT 10/04 A2997 RMK A01 T01030043  RH  066%=      5-min Rain = 0
KMC4 190847Z 05002KT 10/04 A2997 RMK A01 T01040043  RH  066%=      5-min Rain = 0
KMC4 190848Z 05002KT 11/04 A2997 RMK A01 T01050043  RH  065%=      5-min Rain = 0
KMC4 190849Z 06002KT 10/04 A2997 RMK A01 T01030042  RH  066%=      5-min Rain = 0
KMC4 190850Z 06002KT 10/04 A2997 RMK A01 T01010042  RH  066%=      5-min Rain = 0
KMC4 190851Z 06002KT 10/04 A2997 RMK A01 T01000042  RH  067%=      5-min Rain = 0
KMC4 190852Z 06001KT 10/04 A2997 RMK A01 T00980041  RH  068%=      5-min Rain = 0
KMC4 190853Z 07000KT 10/04 A2997 RMK A01 T00970041  RH  068%=      5-min Rain = 0
KMC4 190854Z 00000KT 10/04 A2997 RMK A01 T00950041  RH  069%=      5-min Rain = 0
KMC4 190855Z 00000KT 09/04 A2997 RMK A01 T00930041  RH  070%=      5-min Rain = 0
KMC4 190856Z 00000KT 09/04 A2997 RMK A01 T00910041  RH  071%=      5-min Rain = 0
KMC4 190857Z 05001KT 09/04 A2997 RMK A01 T00900041  RH  072%=      5-min Rain = 0
KMC4 190858Z 06002KT 09/04 A2997 RMK A01 T00890041  RH  072%=      5-min Rain = 0
KMC4 190859Z 06002KT 09/04 A2997 RMK A01 T00890041  RH  072%=      5-min Rain = 0
KMC4 190900Z 04001KT 09/04 A2997 RMK A01 T00880041  RH  072%=      5-min Rain = 0
KMC4 190901Z 05002KT 09/04 A2997 RMK A01 T00870041  RH  073%=      5-min Rain = 0
KMC4 190902Z 07002KT 09/04 A2997 RMK A01 T00860040  RH  073%=      5-min Rain = 0
KMC4 190903Z 07002KT 09/04 A2997 RMK A01 T00860040  RH  073%=      5-min Rain = 0
KMC4 190904Z 07003KT 09/04 A2997 RMK A01 T00860041  RH  073%=      5-min Rain = 0
KMC4 190905Z 07003KT 09/04 A2997 RMK A01 T00850040  RH  073%=      5-min Rain = 0
KMC4 190906Z 07003KT 09/04 A2997 RMK A01 T00850040  RH  073%=      5-min Rain = 0
KMC4 190907Z 07003KT 09/04 A2997 RMK A01 T00850040  RH  074%=      5-min Rain = 0
KMC4 190908Z 07003KT 08/04 A2997 RMK A01 T00840040  RH  074%=      5-min Rain = 0
KMC4 190909Z 07003KT 08/04 A2997 RMK A01 T00840040  RH  074%=      5-min Rain = 0
KMC4 190910Z 07003KT 08/04 A2997 RMK A01 T00840040  RH  074%=      5-min Rain = 0
KMC4 190911Z 08003KT 09/04 A2997 RMK A01 T00850041  RH  074%=      5-min Rain = 0
KMC4 190912Z 08003KT 09/04 A2997 RMK A01 T00860041  RH  073%=      5-min Rain = 0
KMC4 190913Z 08003KT 09/04 A2997 RMK A01 T00870041  RH  073%=      5-min Rain = 0
KMC4 190914Z 09003KT 09/04 A2997 RMK A01 T00880041  RH  072%=      5-min Rain = 0
KMC4 190915Z 09002KT 09/04 A2997 RMK A01 T00880041  RH  072%=      5-min Rain = 0
KMC4 190916Z 10002KT 09/04 A2997 RMK A01 T00880041  RH  072%=      5-min Rain = 0
KMC4 190917Z 10003KT 09/04 A2997 RMK A01 T00880041  RH  072%=      5-min Rain = 0
KMC4 190918Z 10002KT 09/04 A2997 RMK A01 T00880041  RH  072%=      5-min Rain = 0
KMC4 190919Z 10002KT 09/04 A2997 RMK A01 T00880041  RH  072%=      5-min Rain = 0
KMC4 190920Z 10002KT 09/04 A2997 RMK A01 T00880041  RH  072%=      5-min Rain = 0
KMC4 190921Z 10002KT 09/04 A2997 RMK A01 T00870041  RH  072%=      5-min Rain = 0
KMC4 190922Z 10002KT 09/04 A2997 RMK A01 T00870041  RH  072%=      5-min Rain = 0
KMC4 190923Z 10002KT 09/04 A2997 RMK A01 T00870041  RH  073%=      5-min Rain = 0
KMC4 190924Z 10002KT 09/04 A2997 RMK A01 T00850040  RH  073%=      5-min Rain = 0
KMC4 190925Z 10002KT 08/04 A2997 RMK A01 T00840040  RH  074%=      5-min Rain = 0
KMC4 190926Z 10002KT 08/04 A2997 RMK A01 T00840040  RH  074%=      5-min Rain = 0
KMC4 190927Z 10002KT 08/04 A2997 RMK A01 T00830040  RH  074%=      5-min Rain = 0
KMC4 190928Z 09002KT 08/04 A2997 RMK A01 T00830040  RH  075%=      5-min Rain = 0
KMC4 190929Z 08002KT 08/04 A2997 RMK A01 T00820040  RH  075%=      5-min Rain = 0
KMC4 190930Z 08001KT 08/04 A2997 RMK A01 T00820040  RH  075%=      5-min Rain = 0
KMC4 190931Z 09002KT 08/04 A2997 RMK A01 T00810040  RH  075%=      5-min Rain = 0
KMC4 190932Z 08001KT 08/04 A2997 RMK A01 T00810040  RH  076%=      5-min Rain = 0
KMC4 190933Z 08001KT 08/04 A2997 RMK A01 T00800040  RH  076%=      5-min Rain = 0
KMC4 190934Z 08001KT 08/04 A2997 RMK A01 T00800040  RH  076%=      5-min Rain = 0
KMC4 190935Z 08001KT 08/04 A2997 RMK A01 T00800040  RH  076%=      5-min Rain = 0
KMC4 190936Z 09001KT 08/04 A2997 RMK A01 T00800040  RH  076%=      5-min Rain = 0
KMC4 190937Z 09001KT 08/04 A2997 RMK A01 T00800041  RH  076%=      5-min Rain = 0
KMC4 190938Z 10002KT 08/04 A2997 RMK A01 T00790040  RH  076%=      5-min Rain = 0
KMC4 190939Z 10002KT 08/04 A2997 RMK A01 T00790040  RH  076%=      5-min Rain = 0
KMC4 190940Z 10002KT 08/04 A2997 RMK A01 T00790040  RH  076%=      5-min Rain = 0
KMC4 190941Z 09002KT 08/04 A2997 RMK A01 T00800040  RH  076%=      5-min Rain = 0
KMC4 190942Z 08002KT 08/04 A2997 RMK A01 T00800040  RH  076%=      5-min Rain = 0
KMC4 190943Z 08003KT 08/04 A2997 RMK A01 T00810040  RH  075%=      5-min Rain = 0
KMC4 190944Z 08003KT 08/04 A2997 RMK A01 T00820040  RH  075%=      5-min Rain = 0
KMC4 190945Z 08003KT 08/04 A2997 RMK A01 T00820040  RH  075%=      5-min Rain = 0
KMC4 190946Z 08003KT 08/04 A2997 RMK A01 T00830040  RH  075%=      5-min Rain = 0
KMC4 190947Z 07003KT 08/04 A2997 RMK A01 T00830041  RH  075%=      5-min Rain = 0
KMC4 190948Z 07003KT 09/04 A2997 RMK A01 T00860042  RH  074%=      5-min Rain = 0
KMC4 190949Z 07003KT 09/04 A2997 RMK A01 T00880043  RH  073%=      5-min Rain = 0
KMC4 190950Z 07003KT 09/04 A2997 RMK A01 T00910043  RH  072%=      5-min Rain = 0
KMC4 190951Z 07003KT 09/04 A2997 RMK A01 T00930043  RH  071%=      5-min Rain = 0
KMC4 190952Z 07003KT 09/04 A2997 RMK A01 T00930042  RH  070%=      5-min Rain = 0
KMC4 190953Z 07003KT 09/04 A2997 RMK A01 T00930042  RH  070%=      5-min Rain = 0
KMC4 190954Z 06003KT 09/04 A2997 RMK A01 T00930042  RH  070%=      5-min Rain = 0
KMC4 190955Z 05003KT 09/04 A2997 RMK A01 T00920041  RH  071%=      5-min Rain = 0
KMC4 190956Z 06003KT 09/04 A2997 RMK A01 T00900040  RH  071%=      5-min Rain = 0
KMC4 190957Z 06003KT 09/04 A2997 RMK A01 T00890041  RH  072%=      5-min Rain = 0
KMC4 190958Z 05003KT 09/04 A2997 RMK A01 T00870040  RH  072%=      5-min Rain = 0
KMC4 190959Z 06004KT 09/04 A2997 RMK A01 T00860040  RH  073%=      5-min Rain = 0
KMC4 191000Z 07004KT 09/04 A2997 RMK A01 T00850040  RH  073%=      5-min Rain = 0
KMC4 191001Z 07003KT 09/04 A2997 RMK A01 T00850040  RH  073%=      5-min Rain = 0
KMC4 191002Z 08003KT 09/04 A2997 RMK A01 T00850041  RH  074%=      5-min Rain = 0
KMC4 191003Z 07003KT 09/04 A2997 RMK A01 T00870041  RH  073%=      5-min Rain = 0
KMC4 191004Z 08003KT 09/04 A2997 RMK A01 T00870041  RH  072%=      5-min Rain = 0
KMC4 191005Z 07002KT 09/04 A2997 RMK A01 T00880041  RH  072%=      5-min Rain = 0
KMC4 191006Z 11002KT 09/04 A2997 RMK A01 T00890042  RH  072%=      5-min Rain = 0
KMC4 191007Z 11002KT 09/04 A2997 RMK A01 T00920043  RH  072%=      5-min Rain = 0
KMC4 191008Z 09002KT 09/04 A2997 RMK A01 T00940044  RH  071%=      5-min Rain = 0
KMC4 191009Z 09002KT 10/04 A2997 RMK A01 T00960043  RH  070%=      5-min Rain = 0
KMC4 191010Z 08001KT 10/04 A2997 RMK A01 T00970043  RH  069%=      5-min Rain = 0
KMC4 191011Z 10001KT 10/04 A2997 RMK A01 T00980043  RH  069%=      5-min Rain = 0
KMC4 191012Z 08001KT 10/04 A2997 RMK A01 T00990044  RH  069%=      5-min Rain = 0
KMC4 191013Z 09001KT 10/04 A2997 RMK A01 T01000043  RH  068%=      5-min Rain = 0
KMC4 191014Z 09002KT 10/04 A2997 RMK A01 T01010043  RH  068%=      5-min Rain = 0
KMC4 191015Z 08002KT 10/04 A2997 RMK A01 T01010044  RH  067%=      5-min Rain = 0
KMC4 191016Z 08002KT 10/04 A2997 RMK A01 T01010044  RH  067%=      5-min Rain = 0
KMC4 191017Z 08002KT 10/04 A2997 RMK A01 T01010044  RH  068%=      5-min Rain = 0
KMC4 191018Z 08002KT 10/04 A2997 RMK A01 T01010043  RH  068%=      5-min Rain = 0
KMC4 191019Z 08002KT 10/04 A2997 RMK A01 T01000043  RH  068%=      5-min Rain = 0
KMC4 191020Z 07002KT 10/04 A2997 RMK A01 T01000043  RH  068%=      5-min Rain = 0
KMC4 191021Z 06002KT 10/04 A2997 RMK A01 T00990043  RH  068%=      5-min Rain = 0
KMC4 191022Z 07002KT 10/04 A2997 RMK A01 T00990043  RH  068%=      5-min Rain = 0
KMC4 191023Z 07002KT 10/04 A2997 RMK A01 T00990043  RH  068%=      5-min Rain = 0
KMC4 191024Z 08002KT 10/04 A2997 RMK A01 T01000044  RH  068%=      5-min Rain = 0
KMC4 191025Z 08002KT 10/04 A2997 RMK A01 T01000044  RH  068%=      5-min Rain = 0
KMC4 191026Z 07002KT 10/04 A2997 RMK A01 T01000043  RH  067%=      5-min Rain = 0
KMC4 191027Z 07002KT 10/04 A2997 RMK A01 T00980041  RH  068%=      5-min Rain = 0
KMC4 191028Z 07002KT 10/04 A2997 RMK A01 T00960041  RH  069%=      5-min Rain = 0
KMC4 191029Z 06002KT 10/04 A2997 RMK A01 T00950042  RH  070%=      5-min Rain = 0
KMC4 191030Z 07002KT 09/04 A2997 RMK A01 T00940042  RH  070%=      5-min Rain = 0
KMC4 191031Z 07002KT 10/04 A2997 RMK A01 T00950043  RH  070%=      5-min Rain = 0
KMC4 191032Z 08002KT 10/04 A2997 RMK A01 T00960043  RH  069%=      5-min Rain = 0
KMC4 191033Z 08002KT 10/04 A2997 RMK A01 T00970043  RH  069%=      5-min Rain = 0
KMC4 191034Z 08002KT 10/04 A2997 RMK A01 T00970043  RH  069%=      5-min Rain = 0
KMC4 191035Z 09001KT 10/04 A2997 RMK A01 T00970043  RH  069%=      5-min Rain = 0
KMC4 191036Z 09001KT 10/04 A2997 RMK A01 T00980043  RH  069%=      5-min Rain = 0
KMC4 191037Z 08001KT 10/04 A2997 RMK A01 T00970043  RH  069%=      5-min Rain = 0
KMC4 191038Z 07001KT 10/04 A2997 RMK A01 T00970043  RH  069%=      5-min Rain = 0
KMC4 191039Z 08002KT 10/04 A2997 RMK A01 T00960042  RH  069%=      5-min Rain = 0
KMC4 191040Z 09002KT 09/04 A2997 RMK A01 T00940041  RH  069%=      5-min Rain = 0
KMC4 191041Z 09002KT 09/04 A2997 RMK A01 T00900040  RH  071%=      5-min Rain = 0
KMC4 191042Z 09002KT 09/04 A2997 RMK A01 T00860039  RH  072%=      5-min Rain = 0
KMC4 191043Z 07003KT 08/04 A2997 RMK A01 T00840040  RH  074%=      5-min Rain = 0
KMC4 191044Z 07003KT 08/04 A2997 RMK A01 T00840040  RH  074%=      5-min Rain = 0
KMC4 191045Z 08003KT 08/04 A2997 RMK A01 T00820039  RH  074%=      5-min Rain = 0
KMC4 191046Z 08003KT 08/04 A2997 RMK A01 T00820040  RH  075%=      5-min Rain = 0
KMC4 191047Z 08003KT 08/04 A2997 RMK A01 T00820040  RH  075%=      5-min Rain = 0
KMC4 191048Z 08003KT 08/04 A2997 RMK A01 T00830041  RH  075%=      5-min Rain = 0
KMC4 191049Z 08003KT 09/04 A2997 RMK A01 T00860043  RH  074%=      5-min Rain = 0
KMC4 191050Z 08003KT 09/04 A2997 RMK A01 T00880043  RH  074%=      5-min Rain = 0
KMC4 191051Z 08003KT 09/04 A2997 RMK A01 T00900043  RH  073%=      5-min Rain = 0
KMC4 191052Z 08003KT 09/04 A2997 RMK A01 T00910044  RH  072%=      5-min Rain = 0
KMC4 191053Z 08003KT 09/04 A2997 RMK A01 T00930044  RH  072%=      5-min Rain = 0
KMC4 191054Z 07003KT 09/04 A2997 RMK A01 T00930043  RH  071%=      5-min Rain = 0
KMC4 191055Z 08003KT 09/04 A2997 RMK A01 T00930043  RH  071%=      5-min Rain = 0
KMC4 191056Z 08003KT 09/04 A2997 RMK A01 T00920043  RH  071%=      5-min Rain = 0
KMC4 191057Z 08004KT 09/04 A2997 RMK A01 T00920043  RH  072%=      5-min Rain = 0
KMC4 191058Z 09004KT 09/04 A2997 RMK A01 T00920044  RH  072%=      5-min Rain = 0
KMC4 191059Z 08003KT 09/04 A2997 RMK A01 T00910043  RH  072%=      5-min Rain = 0
KMC4 191100Z 08004KT 09/04 A2997 RMK A01 T00900043  RH  072%=      5-min Rain = 0
KMC4 191101Z 08004KT 09/04 A2997 RMK A01 T00890043  RH  073%=      5-min Rain = 0
KMC4 191102Z 08004KT 09/04 A2997 RMK A01 T00890043  RH  073%=      5-min Rain = 0
KMC4 191103Z 08004KT 09/04 A2997 RMK A01 T00890044  RH  073%=      5-min Rain = 0
KMC4 191104Z 08004KT 09/04 A2997 RMK A01 T00880043  RH  073%=      5-min Rain = 0
KMC4 191105Z 08004KT 09/04 A2997 RMK A01 T00880043  RH  074%=      5-min Rain = 0
KMC4 191106Z 07004KT 09/04 A2997 RMK A01 T00870043  RH  074%=      5-min Rain = 0
KMC4 191107Z 07004KT 09/04 A2996 RMK A01 T00860043  RH  074%=      5-min Rain = 0
KMC4 191108Z 07004KT 09/04 A2996 RMK A01 T00860043  RH  075%=      5-min Rain = 0
KMC4 191109Z 08004KT 09/04 A2997 RMK A01 T00860044  RH  075%=      5-min Rain = 0
KMC4 191110Z 08004KT 09/04 A2997 RMK A01 T00870044  RH  074%=      5-min Rain = 0
KMC4 191111Z 07004KT 09/04 A2997 RMK A01 T00870044  RH  074%=      5-min Rain = 0
KMC4 191112Z 07004KT 09/04 A2997 RMK A01 T00870044  RH  074%=      5-min Rain = 0
KMC4 191113Z 07005KT 09/05 A2997 RMK A01 T00880045  RH  074%=      5-min Rain = 0
KMC4 191114Z 07004KT 09/05 A2997 RMK A01 T00890045  RH  074%=      5-min Rain = 0
KMC4 191115Z 08004KT 09/04 A2997 RMK A01 T00890044  RH  074%=      5-min Rain = 0
KMC4 191116Z 08004KT 09/04 A2997 RMK A01 T00880044  RH  074%=      5-min Rain = 0
KMC4 191117Z 08005KT 09/05 A2997 RMK A01 T00870045  RH  075%=      5-min Rain = 0
KMC4 191118Z 08005KT 09/05 A2996 RMK A01 T00870046  RH  075%=      5-min Rain = 0
KMC4 191119Z 08005KT 09/05 A2996 RMK A01 T00910049  RH  075%=      5-min Rain = 0
KMC4 191120Z 08005KT 10/05 A2996 RMK A01 T00960050  RH  073%=      5-min Rain = 0
KMC4 191121Z 09005KT 10/05 A2996 RMK A01 T00990049  RH  071%=      5-min Rain = 0
KMC4 191122Z 09004KT 10/05 A2996 RMK A01 T01010049  RH  070%=      5-min Rain = 0
KMC4 191123Z 08004KT 10/05 A2997 RMK A01 T01030049  RH  069%=      5-min Rain = 0
KMC4 191124Z 09004KT 10/05 A2997 RMK A01 T01030049  RH  069%=      5-min Rain = 0
KMC4 191125Z 09005KT 10/05 A2996 RMK A01 T01020049  RH  069%=      5-min Rain = 0
KMC4 191126Z 08005KT 11/05 A2996 RMK A01 T01050050  RH  069%=      5-min Rain = 0
KMC4 191127Z 08004KT 11/05 A2997 RMK A01 T01060049  RH  068%=      5-min Rain = 0
KMC4 191128Z 08004KT 10/05 A2997 RMK A01 T01040048  RH  068%=      5-min Rain = 0
KMC4 191129Z 08004KT 10/05 A2997 RMK A01 T01020049  RH  069%=      5-min Rain = 0
KMC4 191130Z 08004KT 10/05 A2997 RMK A01 T01020049  RH  070%=      5-min Rain = 0
KMC4 191131Z 08004KT 10/05 A2997 RMK A01 T01010048  RH  070%=      5-min Rain = 0
KMC4 191132Z 08004KT 10/05 A2996 RMK A01 T01000048  RH  070%=      5-min Rain = 0
KMC4 191133Z 08003KT 10/05 A2996 RMK A01 T00990047  RH  070%=      5-min Rain = 0
KMC4 191134Z 09002KT 10/05 A2997 RMK A01 T00970046  RH  071%=      5-min Rain = 0
KMC4 191135Z 09001KT 10/05 A2997 RMK A01 T00950046  RH  071%=      5-min Rain = 0
KMC4 191136Z 08002KT 09/05 A2997 RMK A01 T00940046  RH  072%=      5-min Rain = 0
KMC4 191137Z 09002KT 09/05 A2997 RMK A01 T00930045  RH  072%=      5-min Rain = 0
KMC4 191138Z 11000KT 09/04 A2997 RMK A01 T00900043  RH  073%=      5-min Rain = 0
KMC4 191139Z 12000KT 09/04 A2997 RMK A01 T00860042  RH  074%=      5-min Rain = 0
KMC4 191140Z 12001KT 08/04 A2997 RMK A01 T00810039  RH  075%=      5-min Rain = 0
KMC4 191141Z 11001KT 08/04 A2997 RMK A01 T00760036  RH  076%=      5-min Rain = 0
KMC4 191142Z 10000KT 07/04 A2997 RMK A01 T00740038  RH  078%=      5-min Rain = 0
KMC4 191143Z 10000KT 07/04 A2997 RMK A01 T00720037  RH  078%=      5-min Rain = 0
KMC4 191144Z 09001KT 07/04 A2997 RMK A01 T00700035  RH  078%=      5-min Rain = 0
KMC4 191145Z 09001KT 07/04 A2997 RMK A01 T00700037  RH  080%=      5-min Rain = 0
KMC4 191146Z 08002KT 07/04 A2997 RMK A01 T00700038  RH  080%=      5-min Rain = 0
KMC4 191147Z 08002KT 07/04 A2997 RMK A01 T00700038  RH  080%=      5-min Rain = 0
KMC4 191148Z 08002KT 07/04 A2997 RMK A01 T00700037  RH  080%=      5-min Rain = 0
KMC4 191149Z 07002KT 07/04 A2997 RMK A01 T00690036  RH  079%=      5-min Rain = 0
KMC4 191150Z 07003KT 07/04 A2997 RMK A01 T00680036  RH  080%=      5-min Rain = 0
KMC4 191151Z 06003KT 07/04 A2997 RMK A01 T00670035  RH  080%=      5-min Rain = 0
KMC4 191152Z 07002KT 07/04 A2997 RMK A01 T00670037  RH  081%=      5-min Rain = 0
KMC4 191153Z 06003KT 07/04 A2997 RMK A01 T00670037  RH  081%=      5-min Rain = 0
KMC4 191154Z 06003KT 07/04 A2997 RMK A01 T00670037  RH  081%=      5-min Rain = 0
KMC4 191155Z 06003KT 07/04 A2997 RMK A01 T00670037  RH  081%=      5-min Rain = 0
KMC4 191156Z 06004KT 07/04 A2997 RMK A01 T00670039  RH  082%=      5-min Rain = 0
KMC4 191157Z 06004KT 07/04 A2997 RMK A01 T00690040  RH  082%=      5-min Rain = 0
KMC4 191158Z 06004KT 07/04 A2997 RMK A01 T00710042  RH  082%=      5-min Rain = 0
KMC4 191159Z 06004KT 07/04 A2997 RMK A01 T00730043  RH  081%=      5-min Rain = 0
KMC4 191200Z 06005KT 08/04 A2997 RMK A01 T00750043  RH  080%=      5-min Rain = 0
KMC4 191201Z 06005KT 08/05 A2997 RMK A01 T00770045  RH  080%=      5-min Rain = 0
KMC4 191202Z 06005KT 08/05 A2997 RMK A01 T00790046  RH  080%=      5-min Rain = 0
KMC4 191203Z 06005KT 08/05 A2997 RMK A01 T00820048  RH  079%=      5-min Rain = 0
KMC4 191204Z 06005KT 09/05 A2997 RMK A01 T00850048  RH  078%=      5-min Rain = 0
KMC4 191205Z 06005KT 09/05 A2997 RMK A01 T00860048  RH  077%=      5-min Rain = 0
KMC4 191206Z 06005KT 09/05 A2997 RMK A01 T00870048  RH  076%=      5-min Rain = 0
KMC4 191207Z 06005KT 09/05 A2997 RMK A01 T00880047  RH  076%=      5-min Rain = 0
KMC4 191208Z 06005KT 09/05 A2997 RMK A01 T00880047  RH  075%=      5-min Rain = 0
KMC4 191209Z 06005KT 09/05 A2997 RMK A01 T00890047  RH  075%=      5-min Rain = 0
KMC4 191210Z 06005KT 09/05 A2997 RMK A01 T00890047  RH  075%=      5-min Rain = 0
KMC4 191211Z 06005KT 09/05 A2997 RMK A01 T00890047  RH  075%=      5-min Rain = 0
KMC4 191212Z 05005KT 09/05 A2997 RMK A01 T00900048  RH  075%=      5-min Rain = 0
KMC4 191213Z 05005KT 09/05 A2997 RMK A01 T00900048  RH  075%=      5-min Rain = 0
KMC4 191214Z 06005KT 09/05 A2997 RMK A01 T00910049  RH  075%=      5-min Rain = 0
KMC4 191215Z 06005KT 09/05 A2997 RMK A01 T00900048  RH  075%=      5-min Rain = 0
KMC4 191216Z 07005KT 09/05 A2997 RMK A01 T00910049  RH  075%=      5-min Rain = 0
KMC4 191217Z 07005KT 09/05 A2997 RMK A01 T00920049  RH  075%=      5-min Rain = 0
KMC4 191218Z 07005KT 09/05 A2997 RMK A01 T00930049  RH  074%=      5-min Rain = 0
KMC4 191219Z 07005KT 09/05 A2997 RMK A01 T00930049  RH  074%=      5-min Rain = 0
KMC4 191220Z 08005KT 09/05 A2998 RMK A01 T00930049  RH  074%=      5-min Rain = 0
KMC4 191221Z 08005KT 09/05 A2998 RMK A01 T00930049  RH  074%=      5-min Rain = 0
KMC4 191222Z 08005KT 09/05 A2998 RMK A01 T00940050  RH  074%=      5-min Rain = 0
KMC4 191223Z 08005KT 10/05 A2998 RMK A01 T00950051  RH  074%=      5-min Rain = 0
KMC4 191224Z 08005KT 10/05 A2998 RMK A01 T00960051  RH  074%=      5-min Rain = 0
KMC4 191225Z 08005KT 10/05 A2998 RMK A01 T00970051  RH  073%=      5-min Rain = 0
KMC4 191226Z 08005KT 10/05 A2998 RMK A01 T00980052  RH  073%=      5-min Rain = 0
KMC4 191227Z 08004KT 10/05 A2998 RMK A01 T00990052  RH  073%=      5-min Rain = 0
KMC4 191228Z 08005KT 10/05 A2998 RMK A01 T01010053  RH  072%=      5-min Rain = 0
KMC4 191229Z 08004KT 10/05 A2998 RMK A01 T01030053  RH  071%=      5-min Rain = 0
KMC4 191230Z 08005KT 10/05 A2998 RMK A01 T01040053  RH  071%=      5-min Rain = 0
KMC4 191231Z 08004KT 10/05 A2998 RMK A01 T01040053  RH  070%=      5-min Rain = 0
KMC4 191232Z 08005KT 10/05 A2998 RMK A01 T01040053  RH  071%=      5-min Rain = 0
KMC4 191233Z 08004KT 10/05 A2998 RMK A01 T01040053  RH  070%=      5-min Rain = 0
KMC4 191234Z 08004KT 10/05 A2998 RMK A01 T01040053  RH  070%=      5-min Rain = 0
KMC4 191235Z 07004KT 10/05 A2998 RMK A01 T01040053  RH  071%=      5-min Rain = 0
KMC4 191236Z 07004KT 10/05 A2998 RMK A01 T01020052  RH  071%=      5-min Rain = 0
KMC4 191237Z 08005KT 10/05 A2998 RMK A01 T01000052  RH  072%=      5-min Rain = 0
KMC4 191238Z 08005KT 10/05 A2998 RMK A01 T00990052  RH  072%=      5-min Rain = 0
KMC4 191239Z 07004KT 10/05 A2998 RMK A01 T00990052  RH  073%=      5-min Rain = 0
KMC4 191240Z 07005KT 10/05 A2998 RMK A01 T01000052  RH  072%=      5-min Rain = 0
KMC4 191241Z 07005KT 10/05 A2998 RMK A01 T01000053  RH  072%=      5-min Rain = 0
KMC4 191242Z 08005KT 10/05 A2998 RMK A01 T00990052  RH  073%=      5-min Rain = 0
KMC4 191243Z 08005KT 10/05 A2998 RMK A01 T00990053  RH  073%=      5-min Rain = 0
KMC4 191244Z 08004KT 10/05 A2998 RMK A01 T01000053  RH  073%=      5-min Rain = 0
KMC4 191245Z 08004KT 10/05 A2998 RMK A01 T01010053  RH  072%=      5-min Rain = 0
KMC4 191246Z 08004KT 10/05 A2998 RMK A01 T01010053  RH  072%=      5-min Rain = 0
KMC4 191247Z 08004KT 10/05 A2998 RMK A01 T01020053  RH  072%=      5-min Rain = 0
KMC4 191248Z 07004KT 10/05 A2998 RMK A01 T01020053  RH  072%=      5-min Rain = 0
KMC4 191249Z 07004KT 10/05 A2998 RMK A01 T01010053  RH  072%=      5-min Rain = 0
KMC4 191250Z 07004KT 10/05 A2998 RMK A01 T01010053  RH  072%=      5-min Rain = 0
KMC4 191251Z 07004KT 10/05 A2998 RMK A01 T00990052  RH  072%=      5-min Rain = 0
KMC4 191252Z 07004KT 10/05 A2998 RMK A01 T00980052  RH  073%=      5-min Rain = 0
KMC4 191253Z 07004KT 10/05 A2998 RMK A01 T00970052  RH  074%=      5-min Rain = 0
KMC4 191254Z 07004KT 10/05 A2998 RMK A01 T00970052  RH  074%=      5-min Rain = 0
KMC4 191255Z 07004KT 10/05 A2998 RMK A01 T00970052  RH  074%=      5-min Rain = 0
KMC4 191256Z 07004KT 10/05 A2998 RMK A01 T00960052  RH  074%=      5-min Rain = 0
KMC4 191257Z 07004KT 10/05 A2998 RMK A01 T00960052  RH  074%=      5-min Rain = 0
KMC4 191258Z 07004KT 10/05 A2998 RMK A01 T00950052  RH  074%=      5-min Rain = 0
KMC4 191259Z 07004KT 10/05 A2998 RMK A01 T00950052  RH  074%=      5-min Rain = 0
KMC4 191300Z 07005KT 10/05 A2998 RMK A01 T00950052  RH  075%=      5-min Rain = 0
KMC4 191301Z 06005KT 10/05 A2998 RMK A01 T00950053  RH  075%=      5-min Rain = 0
KMC4 191302Z 06005KT 10/05 A2998 RMK A01 T00950053  RH  075%=      5-min Rain = 0
KMC4 191303Z 06005KT 10/05 A2998 RMK A01 T00950052  RH  075%=      5-min Rain = 0
KMC4 191304Z 06005KT 10/05 A2998 RMK A01 T00950052  RH  075%=      5-min Rain = 0
KMC4 191305Z 06005KT 10/05 A2998 RMK A01 T00960053  RH  075%=      5-min Rain = 0
KMC4 191306Z 07005KT 10/05 A2998 RMK A01 T00960053  RH  075%=      5-min Rain = 0
KMC4 191307Z 07004KT 10/05 A2998 RMK A01 T00960052  RH  074%=      5-min Rain = 0
KMC4 191308Z 07004KT 10/05 A2998 RMK A01 T00960053  RH  074%=      5-min Rain = 0
KMC4 191309Z 07004KT 10/05 A2998 RMK A01 T00960053  RH  074%=      5-min Rain = 0
KMC4 191310Z 07004KT 10/05 A2998 RMK A01 T00960053  RH  074%=      5-min Rain = 0
KMC4 191311Z 07004KT 10/05 A2998 RMK A01 T00960053  RH  074%=      5-min Rain = 0
KMC4 191312Z 08005KT 10/05 A2998 RMK A01 T00960053  RH  074%=      5-min Rain = 0
KMC4 191313Z 08005KT 10/05 A2998 RMK A01 T00960053  RH  074%=      5-min Rain = 0
KMC4 191314Z 08005KT 10/05 A2998 RMK A01 T00980054  RH  074%=      5-min Rain = 0
KMC4 191315Z 08005KT 10/05 A2998 RMK A01 T00990054  RH  073%=      5-min Rain = 0
KMC4 191316Z 08005KT 10/05 A2998 RMK A01 T01000054  RH  073%=      5-min Rain = 0
KMC4 191317Z 08005KT 10/05 A2999 RMK A01 T01020054  RH  072%=      5-min Rain = 0
KMC4 191318Z 08005KT 10/05 A2999 RMK A01 T01020054  RH  072%=      5-min Rain = 0
KMC4 191319Z 08005KT 10/05 A2999 RMK A01 T01030054  RH  072%=      5-min Rain = 0
KMC4 191320Z 08005KT 10/05 A2999 RMK A01 T01040054  RH  071%=      5-min Rain = 0
KMC4 191321Z 07005KT 10/05 A2998 RMK A01 T01040054  RH  071%=      5-min Rain = 0
KMC4 191322Z 07005KT 11/05 A2998 RMK A01 T01050054  RH  071%=      5-min Rain = 0
KMC4 191323Z 07004KT 11/05 A2998 RMK A01 T01050054  RH  071%=      5-min Rain = 0
KMC4 191324Z 07004KT 10/05 A2998 RMK A01 T01040054  RH  071%=      5-min Rain = 0
KMC4 191325Z 07004KT 10/05 A2998 RMK A01 T01030054  RH  071%=      5-min Rain = 0
KMC4 191326Z 07003KT 10/05 A2999 RMK A01 T01030054  RH  072%=      5-min Rain = 0
KMC4 191327Z 07004KT 10/05 A2998 RMK A01 T01020054  RH  072%=      5-min Rain = 0
KMC4 191328Z 07004KT 10/05 A2998 RMK A01 T01020054  RH  072%=      5-min Rain = 0
KMC4 191329Z 07004KT 10/05 A2998 RMK A01 T01000053  RH  073%=      5-min Rain = 0
KMC4 191330Z 07004KT 10/05 A2998 RMK A01 T00990053  RH  073%=      5-min Rain = 0
KMC4 191331Z 07004KT 10/05 A2998 RMK A01 T00980053  RH  074%=      5-min Rain = 0
KMC4 191332Z 07004KT 10/05 A2998 RMK A01 T00980053  RH  074%=      5-min Rain = 0
KMC4 191333Z 07004KT 10/05 A2998 RMK A01 T00990053  RH  074%=      5-min Rain = 0
KMC4 191334Z 07004KT 10/05 A2998 RMK A01 T00980053  RH  074%=      5-min Rain = 0
KMC4 191335Z 07004KT 10/05 A2998 RMK A01 T00980053  RH  074%=      5-min Rain = 0
KMC4 191336Z 07004KT 10/05 A2998 RMK A01 T00970054  RH  074%=      5-min Rain = 0
KMC4 191337Z 07004KT 10/05 A2998 RMK A01 T00970054  RH  074%=      5-min Rain = 0
KMC4 191338Z 07004KT 10/05 A2998 RMK A01 T00970054  RH  075%=      5-min Rain = 0
KMC4 191339Z 07004KT 10/05 A2998 RMK A01 T00980054  RH  074%=      5-min Rain = 0
KMC4 191340Z 07004KT 10/06 A2998 RMK A01 T00990055  RH  074%=      5-min Rain = 0
KMC4 191341Z 07004KT 10/06 A2998 RMK A01 T00990055  RH  074%=      5-min Rain = 0
KMC4 191342Z 07004KT 10/06 A2998 RMK A01 T01000055  RH  073%=      5-min Rain = 0
KMC4 191343Z 07004KT 10/06 A2998 RMK A01 T01010055  RH  073%=      5-min Rain = 0
KMC4 191344Z 07004KT 10/06 A2998 RMK A01 T01020055  RH  073%=      5-min Rain = 0
KMC4 191345Z 07004KT 10/06 A2998 RMK A01 T01020055  RH  072%=      5-min Rain = 0
KMC4 191346Z 07004KT 10/06 A2999 RMK A01 T01020055  RH  072%=      5-min Rain = 0
KMC4 191347Z 07004KT 10/06 A2999 RMK A01 T01020055  RH  072%=      5-min Rain = 0
KMC4 191348Z 07004KT 10/06 A2998 RMK A01 T01030055  RH  072%=      5-min Rain = 0
KMC4 191349Z 07004KT 10/06 A2998 RMK A01 T01040056  RH  072%=      5-min Rain = 0
KMC4 191350Z 07004KT 11/06 A2998 RMK A01 T01050056  RH  072%=      5-min Rain = 0
KMC4 191351Z 07004KT 11/06 A2998 RMK A01 T01050056  RH  072%=      5-min Rain = 0
KMC4 191352Z 07004KT 11/06 A2998 RMK A01 T01060056  RH  071%=      5-min Rain = 0
KMC4 191353Z 07004KT 11/06 A2998 RMK A01 T01070057  RH  071%=      5-min Rain = 0
KMC4 191354Z 07004KT 11/06 A2998 RMK A01 T01080057  RH  071%=      5-min Rain = 0
KMC4 191355Z 07004KT 11/06 A2998 RMK A01 T01100058  RH  070%=      5-min Rain = 0
KMC4 191356Z 07004KT 11/06 A2998 RMK A01 T01120058  RH  070%=      5-min Rain = 0
KMC4 191357Z 07004KT 11/06 A2999 RMK A01 T01130059  RH  069%=      5-min Rain = 0
KMC4 191358Z 07004KT 11/06 A2999 RMK A01 T01140058  RH  069%=      5-min Rain = 0
KMC4 191359Z 07004KT 12/06 A2999 RMK A01 T01150059  RH  068%=      5-min Rain = 0
KMC4 191400Z 07004KT 12/06 A2999 RMK A01 T01160059  RH  068%=      5-min Rain = 0
KMC4 191401Z 07004KT 12/06 A2999 RMK A01 T01170059  RH  067%=      5-min Rain = 0
KMC4 191402Z 07004KT 12/06 A2999 RMK A01 T01180059  RH  067%=      5-min Rain = 0
KMC4 191403Z 07004KT 12/06 A2999 RMK A01 T01190059  RH  066%=      5-min Rain = 0
KMC4 191404Z 07004KT 12/06 A2999 RMK A01 T01200059  RH  066%=      5-min Rain = 0
KMC4 191405Z 07004KT 12/06 A2999 RMK A01 T01200059  RH  066%=      5-min Rain = 0
KMC4 191406Z 08005KT 12/06 A2999 RMK A01 T01200059  RH  066%=      5-min Rain = 0
KMC4 191407Z 07004KT 12/06 A2999 RMK A01 T01200060  RH  066%=      5-min Rain = 0
KMC4 191408Z 08004KT 12/06 A2999 RMK A01 T01200060  RH  067%=      5-min Rain = 0
KMC4 191409Z 07004KT 12/06 A2999 RMK A01 T01190060  RH  067%=      5-min Rain = 0
KMC4 191410Z 07003KT 12/06 A2999 RMK A01 T01180060  RH  067%=      5-min Rain = 0
KMC4 191411Z 07003KT 12/06 A2999 RMK A01 T01180060  RH  067%=      5-min Rain = 0
KMC4 191412Z 07003KT 12/06 A2999 RMK A01 T01170060  RH  068%=      5-min Rain = 0
KMC4 191413Z 07003KT 12/06 A2999 RMK A01 T01170059  RH  068%=      5-min Rain = 0
KMC4 191414Z 06004KT 12/06 A2999 RMK A01 T01170059  RH  068%=      5-min Rain = 0
KMC4 191415Z 06004KT 12/06 A2999 RMK A01 T01170060  RH  068%=      5-min Rain = 0
KMC4 191416Z 06004KT 12/06 A2999 RMK A01 T01160059  RH  068%=      5-min Rain = 0
KMC4 191417Z 06004KT 12/06 A2999 RMK A01 T01160060  RH  068%=      5-min Rain = 0
KMC4 191418Z 06003KT 12/06 A2999 RMK A01 T01150060  RH  069%=      5-min Rain = 0
KMC4 191419Z 06003KT 12/06 A2999 RMK A01 T01150060  RH  069%=      5-min Rain = 0
KMC4 191420Z 06003KT 11/06 A2999 RMK A01 T01140060  RH  069%=      5-min Rain = 0
KMC4 191421Z 06003KT 11/06 A2999 RMK A01 T01130060  RH  069%=      5-min Rain = 0
KMC4 191422Z 06003KT 11/06 A2999 RMK A01 T01140060  RH  070%=      5-min Rain = 0
KMC4 191423Z 06004KT 11/06 A2999 RMK A01 T01140060  RH  070%=      5-min Rain = 0
KMC4 191424Z 06004KT 11/06 A2999 RMK A01 T01140060  RH  070%=      5-min Rain = 0
KMC4 191425Z 06004KT 11/06 A2999 RMK A01 T01140061  RH  070%=      5-min Rain = 0
KMC4 191426Z 06004KT 11/06 A2999 RMK A01 T01140061  RH  070%=      5-min Rain = 0
KMC4 191427Z 06003KT 11/06 A2999 RMK A01 T01140061  RH  070%=      5-min Rain = 0
KMC4 191428Z 06003KT 11/06 A2999 RMK A01 T01140061  RH  070%=      5-min Rain = 0
KMC4 191429Z 06003KT 11/06 A2999 RMK A01 T01140061  RH  070%=      5-min Rain = 0
KMC4 191430Z 06003KT 12/06 A2999 RMK A01 T01150062  RH  070%=      5-min Rain = 0
KMC4 191431Z 05002KT 12/06 A2999 RMK A01 T01150062  RH  070%=      5-min Rain = 0
KMC4 191432Z 05002KT 12/06 A2999 RMK A01 T01160063  RH  070%=      5-min Rain = 0
KMC4 191433Z 05002KT 12/06 A2999 RMK A01 T01160063  RH  070%=      5-min Rain = 0
KMC4 191434Z 05002KT 12/07 A2999 RMK A01 T01170065  RH  070%=      5-min Rain = 0
KMC4 191435Z 05002KT 12/06 A2999 RMK A01 T01170063  RH  069%=      5-min Rain = 0
KMC4 191436Z 06003KT 12/06 A2999 RMK A01 T01190064  RH  069%=      5-min Rain = 0
KMC4 191437Z 06003KT 12/06 A2999 RMK A01 T01190064  RH  069%=      5-min Rain = 0
KMC4 191438Z 06003KT 12/06 A2999 RMK A01 T01200064  RH  068%=      5-min Rain = 0
KMC4 191439Z 06003KT 12/06 A2999 RMK A01 T01210064  RH  068%=      5-min Rain = 0
KMC4 191440Z 06003KT 12/06 A2999 RMK A01 T01210064  RH  068%=      5-min Rain = 0
KMC4 191441Z 06002KT 12/06 A2999 RMK A01 T01220064  RH  068%=      5-min Rain = 0
KMC4 191442Z 07002KT 12/07 A2999 RMK A01 T01220066  RH  069%=      5-min Rain = 0
KMC4 191443Z 08002KT 12/07 A2999 RMK A01 T01230066  RH  068%=      5-min Rain = 0
KMC4 191444Z 08002KT 12/07 A2999 RMK A01 T01240067  RH  068%=      5-min Rain = 0
KMC4 191445Z 09003KT 13/07 A2999 RMK A01 T01260067  RH  067%=      5-min Rain = 0
KMC4 191446Z 10002KT 13/07 A2999 RMK A01 T01270065  RH  066%=      5-min Rain = 0
KMC4 191447Z 10003KT 13/07 A30 RMK A01 T01290067  RH  066%=      5-min Rain = 0
KMC4 191448Z 10003KT 13/07 A30 RMK A01 T01310067  RH  065%=      5-min Rain = 0
KMC4 191449Z 10002KT 13/07 A30 RMK A01 T01310066  RH  064%=      5-min Rain = 0
KMC4 191450Z 11002KT 13/07 A30 RMK A01 T01330066  RH  064%=      5-min Rain = 0
KMC4 191451Z 12002KT 13/07 A30 RMK A01 T01330066  RH  063%=      5-min Rain = 0
KMC4 191452Z 12002KT 13/07 A30 RMK A01 T01340065  RH  063%=      5-min Rain = 0
KMC4 191453Z 13000KT 13/07 A30 RMK A01 T01340065  RH  063%=      5-min Rain = 0
KMC4 191454Z 00000KT 14/07 A30 RMK A01 T01350067  RH  063%=      5-min Rain = 0
KMC4 191455Z 11001KT 14/07 A30 RMK A01 T01360067  RH  063%=      5-min Rain = 0
KMC4 191456Z 10001KT 14/07 A30 RMK A01 T01370067  RH  063%=      5-min Rain = 0
KMC4 191457Z 09001KT 14/07 A30 RMK A01 T01370066  RH  062%=      5-min Rain = 0
KMC4 191458Z 09001KT 14/07 A30 RMK A01 T01370065  RH  062%=      5-min Rain = 0
KMC4 191459Z 08001KT 14/07 A30 RMK A01 T01370065  RH  062%=      5-min Rain = 0
KMC4 191500Z 09001KT 14/06 A30 RMK A01 T01360064  RH  062%=      5-min Rain = 0
KMC4 191501Z 08001KT 14/06 A30 RMK A01 T01360064  RH  062%=      5-min Rain = 0
KMC4 191502Z 08001KT 14/07 A30 RMK A01 T01370065  RH  062%=      5-min Rain = 0
KMC4 191503Z 08001KT 14/07 A30 RMK A01 T01370065  RH  062%=      5-min Rain = 0
KMC4 191504Z 08001KT 14/07 A30 RMK A01 T01370065  RH  062%=      5-min Rain = 0
KMC4 191505Z 08001KT 14/07 A30 RMK A01 T01380066  RH  062%=      5-min Rain = 0
KMC4 191506Z 10001KT 14/06 A30 RMK A01 T01390064  RH  061%=      5-min Rain = 0
KMC4 191507Z 10001KT 14/07 A30 RMK A01 T01400065  RH  061%=      5-min Rain = 0
KMC4 191508Z 09001KT 14/07 A30 RMK A01 T01400065  RH  060%=      5-min Rain = 0
KMC4 191509Z 11000KT 14/06 A30 RMK A01 T01400064  RH  060%=      5-min Rain = 0
KMC4 191510Z 13001KT 14/07 A30 RMK A01 T01400065  RH  060%=      5-min Rain = 0
KMC4 191511Z 13001KT 14/06 A30 RMK A01 T01400064  RH  060%=      5-min Rain = 0
KMC4 191512Z 12001KT 14/07 A30 RMK A01 T01410065  RH  060%=      5-min Rain = 0
KMC4 191513Z 12001KT 14/07 A30 RMK A01 T01410065  RH  060%=      5-min Rain = 0
KMC4 191514Z 11001KT 14/07 A30 RMK A01 T01410065  RH  060%=      5-min Rain = 0
KMC4 191515Z 11000KT 14/07 A30 RMK A01 T01410067  RH  061%=      5-min Rain = 0
KMC4 191516Z 00000KT 14/07 A30 RMK A01 T01410068  RH  061%=      5-min Rain = 0
KMC4 191517Z 11000KT 14/07 A30 RMK A01 T01420068  RH  061%=      5-min Rain = 0
KMC4 191518Z 12000KT 14/07 A30 RMK A01 T01420068  RH  061%=      5-min Rain = 0
KMC4 191519Z 13000KT 14/07 A30 RMK A01 T01440068  RH  060%=      5-min Rain = 0
KMC4 191520Z 00000KT 15/07 A30 RMK A01 T01450067  RH  060%=      5-min Rain = 0
KMC4 191521Z 13000KT 15/07 A30 RMK A01 T01460068  RH  060%=      5-min Rain = 0
KMC4 191522Z 11001KT 15/07 A30 RMK A01 T01470070  RH  060%=      5-min Rain = 0
KMC4 191523Z 07000KT 15/07 A30 RMK A01 T01480070  RH  060%=      5-min Rain = 0
KMC4 191524Z 05000KT 15/07 A30 RMK A01 T01480069  RH  059%=      5-min Rain = 0
KMC4 191525Z 04001KT 15/07 A30 RMK A01 T01480067  RH  058%=      5-min Rain = 0
KMC4 191526Z 04001KT 15/07 A30 RMK A01 T01480068  RH  059%=      5-min Rain = 0
KMC4 191527Z 05000KT 15/07 A30 RMK A01 T01470069  RH  060%=      5-min Rain = 0
KMC4 191528Z 06001KT 15/07 A30 RMK A01 T01460069  RH  060%=      5-min Rain = 0
KMC4 191529Z 07001KT 15/07 A30 RMK A01 T01460070  RH  060%=      5-min Rain = 0
KMC4 191530Z 08002KT 15/07 A30 RMK A01 T01460070  RH  060%=      5-min Rain = 0
KMC4 191531Z 08002KT 15/07 A30 RMK A01 T01460069  RH  060%=      5-min Rain = 0
KMC4 191532Z 08001KT 15/07 A30 RMK A01 T01450069  RH  060%=      5-min Rain = 0
KMC4 191533Z 09002KT 15/07 A30 RMK A01 T01460069  RH  060%=      5-min Rain = 0
KMC4 191534Z 09001KT 15/07 A30 RMK A01 T01460068  RH  060%=      5-min Rain = 0
KMC4 191535Z 13002KT 15/07 A30 RMK A01 T01450068  RH  060%=      5-min Rain = 0
KMC4 191536Z 14003KT 15/07 A30 RMK A01 T01460069  RH  060%=      5-min Rain = 0
KMC4 191537Z 13003KT 15/07 A30 RMK A01 T01460069  RH  060%=      5-min Rain = 0
KMC4 191538Z 12002KT 15/07 A30 RMK A01 T01470069  RH  059%=      5-min Rain = 0
KMC4 191539Z 12002KT 15/07 A30 RMK A01 T01490069  RH  059%=      5-min Rain = 0
KMC4 191540Z 14002KT 15/07 A30 RMK A01 T01490069  RH  059%=      5-min Rain = 0
KMC4 191541Z 14002KT 15/07 A30 RMK A01 T01510069  RH  058%=      5-min Rain = 0
KMC4 191542Z 12002KT 15/07 A30 RMK A01 T01520070  RH  058%=      5-min Rain = 0
KMC4 191543Z 10001KT 15/07 A30 RMK A01 T01530070  RH  058%=      5-min Rain = 0
KMC4 191544Z 11001KT 15/07 A30 RMK A01 T01540070  RH  057%=      5-min Rain = 0
KMC4 191545Z 10001KT 15/07 A30 RMK A01 T01540070  RH  057%=      5-min Rain = 0
KMC4 191546Z 11002KT 16/07 A30 RMK A01 T01550070  RH  057%=      5-min Rain = 0
KMC4 191547Z 08002KT 16/07 A30 RMK A01 T01550070  RH  057%=      5-min Rain = 0
KMC4 191548Z 08001KT 16/07 A30 RMK A01 T01550069  RH  056%=      5-min Rain = 0
KMC4 191549Z 13002KT 16/07 A30 RMK A01 T01560069  RH  056%=      5-min Rain = 0
KMC4 191550Z 14003KT 16/07 A30 RMK A01 T01570069  RH  056%=      5-min Rain = 0
KMC4 191551Z 11003KT 16/07 A30 RMK A01 T01580070  RH  056%=      5-min Rain = 0
KMC4 191552Z 10003KT 16/07 A30 RMK A01 T01590069  RH  055%=      5-min Rain = 0
KMC4 191553Z 11002KT 16/07 A30 RMK A01 T01590069  RH  055%=      5-min Rain = 0
KMC4 191554Z 10003KT 16/07 A30 RMK A01 T01600070  RH  055%=      5-min Rain = 0
KMC4 191555Z 11003KT 16/07 A30 RMK A01 T01610069  RH  054%=      5-min Rain = 0
KMC4 191556Z 10003KT 16/07 A30 RMK A01 T01610069  RH  054%=      5-min Rain = 0
KMC4 191557Z 10003KT 16/07 A30 RMK A01 T01620068  RH  054%=      5-min Rain = 0
KMC4 191558Z 13003KT 16/07 A30 RMK A01 T01620069  RH  054%=      5-min Rain = 0
KMC4 191559Z 12003KT 16/07 A30 RMK A01 T01630070  RH  054%=      5-min Rain = 0
KMC4 191600Z 12003KT 16/07 A30 RMK A01 T01640070  RH  053%=      5-min Rain = 0
KMC4 191601Z 13003KT 17/07 A30 RMK A01 T01650070  RH  053%=      5-min Rain = 0
KMC4 191602Z 13003KT 17/07 A30 RMK A01 T01660069  RH  053%=      5-min Rain = 0
KMC4 191603Z 12004KT 17/07 A30 RMK A01 T01670070  RH  053%=      5-min Rain = 0
KMC4 191604Z 13003KT 17/07 A30 RMK A01 T01680069  RH  052%=      5-min Rain = 0
KMC4 191605Z 12004KT 17/07 A30 RMK A01 T01690071  RH  053%=      5-min Rain = 0
KMC4 191606Z 13004KT 17/07 A30 RMK A01 T01690070  RH  052%=      5-min Rain = 0
KMC4 191607Z 13004KT 17/07 A30 RMK A01 T01700070  RH  052%=      5-min Rain = 0
KMC4 191608Z 12004KT 17/07 A30 RMK A01 T01710069  RH  051%=      5-min Rain = 0
KMC4 191609Z 11003KT 17/07 A30 RMK A01 T01710070  RH  052%=      5-min Rain = 0
KMC4 191610Z 11003KT 17/07 A30 RMK A01 T01710070  RH  051%=      5-min Rain = 0
KMC4 191611Z 11004KT 17/07 A30 RMK A01 T01720070  RH  051%=      5-min Rain = 0
KMC4 191612Z 10003KT 17/07 A30 RMK A01 T01720070  RH  051%=      5-min Rain = 0
KMC4 191613Z 13003KT 17/07 A30 RMK A01 T01720070  RH  051%=      5-min Rain = 0
KMC4 191614Z 12002KT 17/07 A30 RMK A01 T01740071  RH  051%=      5-min Rain = 0
KMC4 191615Z 11004KT 18/07 A30 RMK A01 T01750071  RH  050%=      5-min Rain = 0
KMC4 191616Z 11003KT 18/07 A30 RMK A01 T01760070  RH  050%=      5-min Rain = 0
KMC4 191617Z 11002KT 18/07 A30 RMK A01 T01750071  RH  050%=      5-min Rain = 0
KMC4 191618Z 12004KT 18/07 A30 RMK A01 T01760071  RH  050%=      5-min Rain = 0
KMC4 191619Z 10004KT 18/07 A30 RMK A01 T01760070  RH  050%=      5-min Rain = 0
KMC4 191620Z 09004KT 18/07 A30 RMK A01 T01770071  RH  050%=      5-min Rain = 0
KMC4 191621Z 10002KT 18/07 A30 RMK A01 T01770070  RH  049%=      5-min Rain = 0
KMC4 191622Z 11002KT 18/07 A30 RMK A01 T01770069  RH  049%=      5-min Rain = 0
KMC4 191623Z 14001KT 18/07 A30 RMK A01 T01780071  RH  049%=      5-min Rain = 0
KMC4 191624Z 15003KT 18/07 A30 RMK A01 T01800071  RH  049%=      5-min Rain = 0
KMC4 191625Z 12003KT 18/07 A30 RMK A01 T01810070  RH  048%=      5-min Rain = 0
KMC4 191626Z 13004KT 18/07 A30 RMK A01 T01810069  RH  048%=      5-min Rain = 0
KMC4 191627Z 14006KT 18/07 A30 RMK A01 T01820070  RH  048%=      5-min Rain = 0
KMC4 191628Z 13004KT 18/07 A30 RMK A01 T01820068  RH  047%=      5-min Rain = 0
KMC4 191629Z 15004KT 18/07 A30 RMK A01 T01820068  RH  047%=      5-min Rain = 0
KMC4 191630Z 15006KT 18/07 A30 RMK A01 T01820070  RH  048%=      5-min Rain = 0
KMC4 191631Z 15006KT 18/07 A30 RMK A01 T01830070  RH  048%=      5-min Rain = 0
KMC4 191632Z 15004KT 18/07 A30 RMK A01 T01830069  RH  047%=      5-min Rain = 0
KMC4 191633Z 14006KT 18/07 A30 RMK A01 T01830070  RH  048%=      5-min Rain = 0
KMC4 191634Z 13006KT 18/07 A30 RMK A01 T01840070  RH  047%=      5-min Rain = 0
KMC4 191635Z 13005KT 18/07 A2999 RMK A01 T01840070  RH  047%=      5-min Rain = 0
KMC4 191636Z 14005KT 18/07 A2999 RMK A01 T01840069  RH  047%=      5-min Rain = 0
KMC4 191637Z 13006KT 19/07 A2999 RMK A01 T01850070  RH  047%=      5-min Rain = 0
KMC4 191638Z 14005KT 19/07 A2999 RMK A01 T01850068  RH  046%=      5-min Rain = 0
KMC4 191639Z 13004KT 19/07 A2999 RMK A01 T01850068  RH  046%=      5-min Rain = 0
KMC4 191640Z 14006KT 18/07 A2999 RMK A01 T01840068  RH  047%=      5-min Rain = 0
KMC4 191641Z 13007KT 19/07 A2999 RMK A01 T01850070  RH  047%=      5-min Rain = 0
KMC4 191642Z 13005KT 19/07 A2999 RMK A01 T01860068  RH  046%=      5-min Rain = 0
KMC4 191643Z 14006KT 19/07 A2999 RMK A01 T01860068  RH  046%=      5-min Rain = 0
KMC4 191644Z 14007KT 19/07 A2999 RMK A01 T01860070  RH  047%=      5-min Rain = 0
KMC4 191645Z 13007KT 19/07 A2999 RMK A01 T01860070  RH  047%=      5-min Rain = 0
KMC4 191646Z 13006KT 19/07 A2999 RMK A01 T01860069  RH  046%=      5-min Rain = 0
KMC4 191647Z 12007KT 19/07 A2999 RMK A01 T01860071  RH  047%=      5-min Rain = 0
KMC4 191648Z 12006KT 19/07 A2999 RMK A01 T01860070  RH  047%=      5-min Rain = 0
KMC4 191649Z 12005KT 19/07 A2999 RMK A01 T01870069  RH  046%=      5-min Rain = 0
KMC4 191650Z 12005KT 19/07 A2999 RMK A01 T01860071  RH  047%=      5-min Rain = 0
KMC4 191651Z 12007KT 19/07 A2999 RMK A01 T01870070  RH  046%=      5-min Rain = 0
KMC4 191652Z 11005KT 19/07 A2999 RMK A01 T01870069  RH  046%=      5-min Rain = 0
KMC4 191653Z 14005KT 19/07 A2999 RMK A01 T01870070  RH  046%=      5-min Rain = 0
KMC4 191654Z 14005KT 19/07 A2999 RMK A01 T01890073  RH  047%=      5-min Rain = 0
KMC4 191655Z 12005KT 19/07 A2999 RMK A01 T01910073  RH  046%=      5-min Rain = 0
KMC4 191656Z 11003KT 19/07 A2999 RMK A01 T01920072  RH  046%=      5-min Rain = 0
KMC4 191657Z 14003KT 19/07 A2999 RMK A01 T01910073  RH  046%=      5-min Rain = 0
KMC4 191658Z 13005KT 19/07 A2999 RMK A01 T01920072  RH  046%=      5-min Rain = 0
KMC4 191659Z 11005KT 19/07 A2999 RMK A01 T01920071  RH  045%=      5-min Rain = 0
KMC4 191700Z 12005KT 19/07 A2999 RMK A01 T01910071  RH  046%=      5-min Rain = 0
KMC4 191701Z 14006KT 19/07 A2999 RMK A01 T01910071  RH  046%=      5-min Rain = 0
KMC4 191702Z 13007KT 19/07 A2999 RMK A01 T01910072  RH  046%=      5-min Rain = 0
KMC4 191703Z 14007KT 19/07 A2998 RMK A01 T01910072  RH  046%=      5-min Rain = 0
KMC4 191704Z 14006KT 19/07 A2998 RMK A01 T01910071  RH  046%=      5-min Rain = 0
KMC4 191705Z 15007KT 19/08 A2998 RMK A01 T01930075  RH  046%=      5-min Rain = 0
KMC4 191706Z 16005KT 20/07 A2998 RMK A01 T01950074  RH  045%=      5-min Rain = 0
KMC4 191707Z 15005KT 20/07 A2998 RMK A01 T01960074  RH  045%=      5-min Rain = 0
KMC4 191708Z 15007KT 20/07 A2998 RMK A01 T01970074  RH  045%=      5-min Rain = 0
KMC4 191709Z 14007KT 20/07 A2998 RMK A01 T01970073  RH  045%=      5-min Rain = 0
KMC4 191710Z 13006KT 20/07 A2998 RMK A01 T01960073  RH  045%=      5-min Rain = 0
KMC4 191711Z 13006KT 20/07 A2998 RMK A01 T01960073  RH  045%=      5-min Rain = 0
KMC4 191712Z 13008KT 20/07 A2998 RMK A01 T01960072  RH  045%=      5-min Rain = 0
KMC4 191713Z 14006KT 20/07 A2998 RMK A01 T01970071  RH  044%=      5-min Rain = 0
KMC4 191714Z 12005KT 20/07 A2998 RMK A01 T01970071  RH  044%=      5-min Rain = 0
KMC4 191715Z 15006KT 20/07 A2998 RMK A01 T01970072  RH  044%=      5-min Rain = 0
KMC4 191716Z 15007KT 20/07 A2998 RMK A01 T01980073  RH  044%=      5-min Rain = 0
KMC4 191717Z 14008KT 20/07 A2998 RMK A01 T01990073  RH  044%=      5-min Rain = 0
KMC4 191718Z 14007KT 20/07 A2998 RMK A01 T02000073  RH  044%=      5-min Rain = 0
KMC4 191719Z 14007KT 20/07 A2998 RMK A01 T02010074  RH  044%=      5-min Rain = 0
KMC4 191720Z 13007KT 20/08 A2998 RMK A01 T02020075  RH  044%=      5-min Rain = 0
KMC4 191721Z 13008KT 20/07 A2998 RMK A01 T02030072  RH  043%=      5-min Rain = 0
KMC4 191722Z 14008KT 20/07 A2998 RMK A01 T02010070  RH  043%=      5-min Rain = 0
KMC4 191723Z 15008KT 20/07 A2998 RMK A01 T02020071  RH  043%=      5-min Rain = 0
KMC4 191724Z 15007KT 20/07 A2998 RMK A01 T02020071  RH  043%=      5-min Rain = 0
KMC4 191725Z 14009KT 20/07 A2997 RMK A01 T02030072  RH  043%=      5-min Rain = 0
KMC4 191726Z 13008KT 20/07 A2997 RMK A01 T02040071  RH  042%=      5-min Rain = 0
KMC4 191727Z 14008KT 20/07 A2997 RMK A01 T02040070  RH  042%=      5-min Rain = 0
KMC4 191728Z 15008KT 20/07 A2997 RMK A01 T02040071  RH  042%=      5-min Rain = 0
KMC4 191729Z 14009KT 20/07 A2997 RMK A01 T02040069  RH  042%=      5-min Rain = 0
KMC4 191730Z 13011KT 21/07 A2997 RMK A01 T02050073  RH  042%=      5-min Rain = 0
KMC4 191731Z 14009KT 21/07 A2997 RMK A01 T02050073  RH  043%=      5-min Rain = 0
KMC4 191732Z 13006KT 21/07 A2997 RMK A01 T02050074  RH  043%=      5-min Rain = 0
KMC4 191733Z 12008KT 21/07 A2997 RMK A01 T02050073  RH  043%=      5-min Rain = 0
KMC4 191734Z 12008KT 21/07 A2997 RMK A01 T02050074  RH  043%=      5-min Rain = 0
KMC4 191735Z 11008KT 21/07 A2997 RMK A01 T02050073  RH  042%=      5-min Rain = 0
KMC4 191736Z 12008KT 21/07 A2997 RMK A01 T02050073  RH  042%=      5-min Rain = 0
KMC4 191737Z 13008KT 21/07 A2997 RMK A01 T02050072  RH  042%=      5-min Rain = 0
KMC4 191738Z 12007KT 21/07 A2997 RMK A01 T02050073  RH  042%=      5-min Rain = 0
KMC4 191739Z 13009KT 21/07 A2997 RMK A01 T02060074  RH  042%=      5-min Rain = 0
KMC4 191740Z 13010KT 21/07 A2996 RMK A01 T02080074  RH  042%=      5-min Rain = 0
KMC4 191741Z 13009KT 21/07 A2996 RMK A01 T02080073  RH  041%=      5-min Rain = 0
KMC4 191742Z 14009KT 21/07 A2996 RMK A01 T02090074  RH  042%=      5-min Rain = 0
KMC4 191743Z 14010KT 21/07 A2996 RMK A01 T02090073  RH  041%=      5-min Rain = 0
KMC4 191744Z 12009KT 21/07 A2996 RMK A01 T02100074  RH  041%=      5-min Rain = 0
KMC4 191745Z 13009KT 21/07 A2996 RMK A01 T02100073  RH  041%=      5-min Rain = 0
KMC4 191746Z 15009KT 21/07 A2996 RMK A01 T02100073  RH  041%=      5-min Rain = 0
KMC4 191747Z 15008KT 21/07 A2996 RMK A01 T02100073  RH  041%=      5-min Rain = 0
KMC4 191748Z 13008KT 21/07 A2996 RMK A01 T02100072  RH  041%=      5-min Rain = 0
KMC4 191749Z 11008KT 21/07 A2996 RMK A01 T02110073  RH  041%=      5-min Rain = 0
KMC4 191750Z 11008KT 21/07 A2996 RMK A01 T02110072  RH  041%=      5-min Rain = 0
KMC4 191751Z 12011KT 21/07 A2996 RMK A01 T02090071  RH  041%=      5-min Rain = 0
KMC4 191752Z 13009KT 21/07 A2996 RMK A01 T02090069  RH  040%=      5-min Rain = 0
KMC4 191753Z 14008KT 21/07 A2996 RMK A01 T02100071  RH  041%=      5-min Rain = 0
KMC4 191754Z 14007KT 21/07 A2996 RMK A01 T02100071  RH  040%=      5-min Rain = 0
KMC4 191755Z 14008KT 21/07 A2996 RMK A01 T02110072  RH  041%=      5-min Rain = 0
KMC4 191756Z 14007KT 21/07 A2996 RMK A01 T02120072  RH  040%=      5-min Rain = 0
KMC4 191757Z 14006KT 21/07 A2996 RMK A01 T02130073  RH  040%=      5-min Rain = 0
KMC4 191758Z 14007KT 22/07 A2996 RMK A01 T02150073  RH  040%=      5-min Rain = 0
KMC4 191759Z 13007KT 22/07 A2996 RMK A01 T02160073  RH  040%=      5-min Rain = 0
KMC4 191800Z 13008KT 22/07 A2995 RMK A01 T02170073  RH  039%=      5-min Rain = 0
KMC4 191801Z 14007KT 22/07 A2995 RMK A01 T02170071  RH  039%=      5-min Rain = 0
KMC4 191802Z 12007KT 22/07 A2995 RMK A01 T02160073  RH  039%=      5-min Rain = 0
KMC4 191803Z 12007KT 22/07 A2995 RMK A01 T02170073  RH  039%=      5-min Rain = 0
KMC4 191804Z 13006KT 22/07 A2995 RMK A01 T02180072  RH  039%=      5-min Rain = 0
KMC4 191805Z 14005KT 22/07 A2995 RMK A01 T02170071  RH  039%=      5-min Rain = 0
KMC4 191806Z 13008KT 22/07 A2995 RMK A01 T02170073  RH  039%=      5-min Rain = 0
KMC4 191807Z 12009KT 22/07 A2995 RMK A01 T02190072  RH  038%=      5-min Rain = 0
KMC4 191808Z 14006KT 22/07 A2995 RMK A01 T02190072  RH  039%=      5-min Rain = 0
KMC4 191809Z 15006KT 22/07 A2995 RMK A01 T02210074  RH  039%=      5-min Rain = 0
KMC4 191810Z 16007KT 22/07 A2995 RMK A01 T02230072  RH  038%=      5-min Rain = 0
KMC4 191811Z 16007KT 22/07 A2995 RMK A01 T02230072  RH  038%=      5-min Rain = 0
KMC4 191812Z 15006KT 22/07 A2995 RMK A01 T02230071  RH  038%=      5-min Rain = 0
KMC4 191813Z 15005KT 22/07 A2995 RMK A01 T02240071  RH  037%=      5-min Rain = 0
KMC4 191814Z 15008KT 23/07 A2995 RMK A01 T02260073  RH  037%=      5-min Rain = 0
KMC4 191815Z 15006KT 23/07 A2995 RMK A01 T02270069  RH  036%=      5-min Rain = 0
KMC4 191816Z 16010KT 23/07 A2995 RMK A01 T02260070  RH  037%=      5-min Rain = 0
KMC4 191817Z 16009KT 23/07 A2995 RMK A01 T02260070  RH  037%=      5-min Rain = 0
KMC4 191818Z 14007KT 23/07 A2995 RMK A01 T02260071  RH  037%=      5-min Rain = 0
KMC4 191819Z 13006KT 23/07 A2995 RMK A01 T02270070  RH  036%=      5-min Rain = 0
KMC4 191820Z 14007KT 23/07 A2995 RMK A01 T02270071  RH  037%=      5-min Rain = 0
KMC4 191821Z 14007KT 23/07 A2994 RMK A01 T02270070  RH  036%=      5-min Rain = 0
KMC4 191822Z 16008KT 23/07 A2994 RMK A01 T02280069  RH  036%=      5-min Rain = 0
KMC4 191823Z 16007KT 23/07 A2994 RMK A01 T02290068  RH  035%=      5-min Rain = 0
KMC4 191824Z 16008KT 23/07 A2994 RMK A01 T02280068  RH  036%=      5-min Rain = 0
KMC4 191825Z 15005KT 23/07 A2994 RMK A01 T02290068  RH  035%=      5-min Rain = 0
KMC4 191826Z 15006KT 23/07 A2994 RMK A01 T02290068  RH  035%=      5-min Rain = 0
KMC4 191827Z 16005KT 23/07 A2994 RMK A01 T02300070  RH  036%=      5-min Rain = 0
KMC4 191828Z 15006KT 23/07 A2994 RMK A01 T02330074  RH  036%=      5-min Rain = 0
KMC4 191829Z 13006KT 24/07 A2994 RMK A01 T02360074  RH  035%=      5-min Rain = 0
KMC4 191830Z 13006KT 24/07 A2994 RMK A01 T02360071  RH  035%=      5-min Rain = 0
KMC4 191831Z 13006KT 24/07 A2994 RMK A01 T02350071  RH  035%=      5-min Rain = 0
KMC4 191832Z 13008KT 23/07 A2993 RMK A01 T02340070  RH  035%=      5-min Rain = 0
KMC4 191833Z 13006KT 23/07 A2993 RMK A01 T02330069  RH  035%=      5-min Rain = 0
KMC4 191834Z 15005KT 23/07 A2993 RMK A01 T02320070  RH  035%=      5-min Rain = 0
KMC4 191835Z 15008KT 23/07 A2993 RMK A01 T02330070  RH  035%=      5-min Rain = 0
KMC4 191836Z 15007KT 24/07 A2993 RMK A01 T02350069  RH  034%=      5-min Rain = 0
KMC4 191837Z 16006KT 24/07 A2993 RMK A01 T02360070  RH  034%=      5-min Rain = 0
KMC4 191838Z 14007KT 24/07 A2993 RMK A01 T02380070  RH  034%=      5-min Rain = 0
KMC4 191839Z 14006KT 24/07 A2993 RMK A01 T02390069  RH  034%=      5-min Rain = 0
KMC4 191840Z 14006KT 24/07 A2993 RMK A01 T02380069  RH  034%=      5-min Rain = 0
KMC4 191841Z 15005KT 24/07 A2993 RMK A01 T02360069  RH  034%=      5-min Rain = 0
KMC4 191842Z 13007KT 24/07 A2993 RMK A01 T02360071  RH  035%=      5-min Rain = 0
KMC4 191843Z 12005KT 24/07 A2993 RMK A01 T02360070  RH  034%=      5-min Rain = 0
KMC4 191844Z 12007G12KT 24/07 A2993 RMK A01 T02370070  RH  034%=      5-min Rain = 0
KMC4 191845Z 13008KT 24/07 A2993 RMK A01 T02370070  RH  034%=      5-min Rain = 0
KMC4 191846Z 13007KT 24/07 A2993 RMK A01 T02380071  RH  034%=      5-min Rain = 0
KMC4 191847Z 11005KT 24/07 A2992 RMK A01 T02380070  RH  034%=      5-min Rain = 0
KMC4 191848Z 14007KT 24/07 A2992 RMK A01 T02380070  RH  034%=      5-min Rain = 0
KMC4 191849Z 16005KT 24/07 A2992 RMK A01 T02390071  RH  034%=      5-min Rain = 0
KMC4 191850Z 15005KT 24/07 A2992 RMK A01 T02430070  RH  033%=      5-min Rain = 0
KMC4 191851Z 13008KT 24/07 A2992 RMK A01 T02430070  RH  033%=      5-min Rain = 0
KMC4 191852Z 14008KT 24/07 A2992 RMK A01 T02430070  RH  033%=      5-min Rain = 0
KMC4 191853Z 14006KT 24/07 A2992 RMK A01 T02420070  RH  033%=      5-min Rain = 0
KMC4 191854Z 14007KT 24/07 A2992 RMK A01 T02420069  RH  033%=      5-min Rain = 0
KMC4 191855Z 12006KT 24/07 A2992 RMK A01 T02420069  RH  033%=      5-min Rain = 0
KMC4 191856Z 12006KT 24/07 A2992 RMK A01 T02420068  RH  033%=      5-min Rain = 0
KMC4 191857Z 12007KT 24/07 A2992 RMK A01 T02420068  RH  033%=      5-min Rain = 0
KMC4 191858Z 13005KT 24/07 A2992 RMK A01 T02430067  RH  032%=      5-min Rain = 0
KMC4 191859Z 12007KT 24/07 A2992 RMK A01 T02440068  RH  032%=      5-min Rain = 0
KMC4 191900Z 12005KT 25/07 A2991 RMK A01 T02450068  RH  032%=      5-min Rain = 0
KMC4 191901Z 13003KT 25/07 A2991 RMK A01 T02450065  RH  031%=      5-min Rain = 0
KMC4 191902Z 20005KT 25/07 A2991 RMK A01 T02460066  RH  032%=      5-min Rain = 0
KMC4 191903Z 19005KT 25/06 A2991 RMK A01 T02480064  RH  031%=      5-min Rain = 0
KMC4 191904Z 15008KT 25/07 A2991 RMK A01 T02480065  RH  031%=      5-min Rain = 0
KMC4 191905Z 14008KT 25/07 A2991 RMK A01 T02500065  RH  031%=      5-min Rain = 0
KMC4 191906Z 14006KT 25/07 A2991 RMK A01 T02500066  RH  031%=      5-min Rain = 0
KMC4 191907Z 13010KT 25/07 A2991 RMK A01 T02520068  RH  031%=      5-min Rain = 0
KMC4 191908Z 13008KT 25/07 A2991 RMK A01 T02540065  RH  030%=      5-min Rain = 0
KMC4 191909Z 13006KT 25/06 A2991 RMK A01 T02520064  RH  030%=      5-min Rain = 0
KMC4 191910Z 14007KT 25/06 A2991 RMK A01 T02510063  RH  030%=      5-min Rain = 0
KMC4 191911Z 14006KT 25/06 A2991 RMK A01 T02510063  RH  030%=      5-min Rain = 0
KMC4 191912Z 13004KT 25/07 A299 RMK A01 T02520065  RH  030%=      5-min Rain = 0
KMC4 191913Z 14004KT 25/06 A299 RMK A01 T02540063  RH  029%=      5-min Rain = 0
KMC4 191914Z 15005KT 25/06 A299 RMK A01 T02540063  RH  030%=      5-min Rain = 0
KMC4 191915Z 17005KT 25/06 A299 RMK A01 T02540062  RH  029%=      5-min Rain = 0
KMC4 191916Z 15008KT 26/06 A299 RMK A01 T02560061  RH  029%=      5-min Rain = 0
KMC4 191917Z 15005KT 26/06 A299 RMK A01 T02570059  RH  028%=      5-min Rain = 0
KMC4 191918Z 15007G13KT 26/06 A299 RMK A01 T02570061  RH  028%=      5-min Rain = 0
KMC4 191919Z 15010KT 26/06 A299 RMK A01 T02590062  RH  028%=      5-min Rain = 0
KMC4 191920Z 14008KT 26/06 A299 RMK A01 T02580061  RH  028%=      5-min Rain = 0
KMC4 191921Z 15007KT 26/06 A299 RMK A01 T02570062  RH  029%=      5-min Rain = 0
KMC4 191922Z 14007KT 26/07 A299 RMK A01 T02590065  RH  029%=      5-min Rain = 0
KMC4 191923Z 15008KT 26/06 A299 RMK A01 T02600063  RH  028%=      5-min Rain = 0
KMC4 191924Z 14013KT 26/06 A299 RMK A01 T02610064  RH  029%=      5-min Rain = 0
KMC4 191925Z 14010KT 26/06 A299 RMK A01 T02600062  RH  028%=      5-min Rain = 0
KMC4 191926Z 13010KT 26/06 A299 RMK A01 T02570062  RH  029%=      5-min Rain = 0
KMC4 191927Z 13009KT 26/06 A299 RMK A01 T02560061  RH  029%=      5-min Rain = 0
KMC4 191928Z 13008KT 26/06 A299 RMK A01 T02550062  RH  029%=      5-min Rain = 0
KMC4 191929Z 13008KT 26/06 A299 RMK A01 T02560063  RH  029%=      5-min Rain = 0
KMC4 191930Z 12008KT 26/06 A2989 RMK A01 T02570062  RH  029%=      5-min Rain = 0
KMC4 191931Z 15011KT 26/06 A2989 RMK A01 T02580060  RH  028%=      5-min Rain = 0
KMC4 191932Z 17009KT 26/06 A2989 RMK A01 T02600057  RH  027%=      5-min Rain = 0
KMC4 191933Z 17008KT 26/06 A2989 RMK A01 T02620058  RH  027%=      5-min Rain = 0
KMC4 191934Z 16006KT 26/06 A2989 RMK A01 T02630057  RH  027%=      5-min Rain = 0
KMC4 191935Z 15010KT 27/06 A2989 RMK A01 T02650058  RH  027%=      5-min Rain = 0
KMC4 191936Z 16012KT 26/06 A2989 RMK A01 T02640056  RH  026%=      5-min Rain = 0
KMC4 191937Z 16010KT 26/06 A2989 RMK A01 T02630057  RH  027%=      5-min Rain = 0
KMC4 191938Z 15009KT 26/06 A2989 RMK A01 T02610058  RH  027%=      5-min Rain = 0
KMC4 191939Z 15009KT 26/06 A2989 RMK A01 T02590062  RH  028%=      5-min Rain = 0
KMC4 191940Z 15009KT 26/07 A2989 RMK A01 T02600066  RH  029%=      5-min Rain = 0
KMC4 191941Z 16008KT 26/06 A2989 RMK A01 T02620064  RH  028%=      5-min Rain = 0
KMC4 191942Z 16008KT 26/06 A2989 RMK A01 T02620061  RH  028%=      5-min Rain = 0
KMC4 191943Z 19007KT 26/06 A2989 RMK A01 T02630061  RH  028%=      5-min Rain = 0
KMC4 191944Z 19010KT 26/06 A2989 RMK A01 T02640059  RH  027%=      5-min Rain = 0
KMC4 191945Z 18010KT 27/06 A2989 RMK A01 T02650058  RH  027%=      5-min Rain = 0
KMC4 191946Z 20008KT 26/06 A2989 RMK A01 T02640056  RH  026%=      5-min Rain = 0
KMC4 191947Z 19009KT 26/06 A2989 RMK A01 T02630057  RH  027%=      5-min Rain = 0
KMC4 191948Z 20008KT 26/05 A2989 RMK A01 T02640054  RH  026%=      5-min Rain = 0
KMC4 191949Z 16008KT 26/06 A2989 RMK A01 T02620058  RH  027%=      5-min Rain = 0
KMC4 191950Z 18008KT 26/06 A2989 RMK A01 T02620060  RH  028%=      5-min Rain = 0
KMC4 191951Z 18006KT 26/06 A2988 RMK A01 T02630062  RH  028%=      5-min Rain = 0
KMC4 191952Z 16006KT 26/06 A2988 RMK A01 T02640062  RH  028%=      5-min Rain = 0
KMC4 191953Z 17007KT 27/06 A2988 RMK A01 T02650064  RH  028%=      5-min Rain = 0
KMC4 191954Z 17009KT 27/06 A2988 RMK A01 T02660062  RH  027%=      5-min Rain = 0
KMC4 191955Z 20008KT 27/06 A2988 RMK A01 T02660058  RH  026%=      5-min Rain = 0
KMC4 191956Z 20006KT 26/06 A2988 RMK A01 T02640056  RH  026%=      5-min Rain = 0
KMC4 191957Z 20005KT 26/06 A2988 RMK A01 T02630057  RH  027%=      5-min Rain = 0
KMC4 191958Z 21006KT 26/06 A2988 RMK A01 T02630058  RH  027%=      5-min Rain = 0
KMC4 191959Z 18004KT 26/06 A2988 RMK A01 T02640057  RH  027%=      5-min Rain = 0
KMC4 192000Z 18005KT 26/06 A2988 RMK A01 T02630057  RH  027%=      5-min Rain = 0
KMC4 192001Z 16011KT 26/06 A2988 RMK A01 T02630063  RH  028%=      5-min Rain = 0
KMC4 192002Z 15009KT 26/06 A2988 RMK A01 T02640063  RH  028%=      5-min Rain = 0
KMC4 192003Z 16008KT 26/06 A2988 RMK A01 T02640064  RH  028%=      5-min Rain = 0
KMC4 192004Z 16007KT 26/06 A2988 RMK A01 T02630064  RH  028%=      5-min Rain = 0
KMC4 192005Z 16006KT 26/07 A2988 RMK A01 T02620065  RH  028%=      5-min Rain = 0
KMC4 192006Z 16006KT 26/07 A2987 RMK A01 T02620065  RH  028%=      5-min Rain = 0
KMC4 192007Z 14007KT 26/07 A2987 RMK A01 T02640068  RH  029%=      5-min Rain = 0
KMC4 192008Z 15008KT 27/07 A2987 RMK A01 T02650067  RH  028%=      5-min Rain = 0
KMC4 192009Z 15009KT 27/07 A2987 RMK A01 T02660067  RH  028%=      5-min Rain = 0
KMC4 192010Z 16010KT 27/07 A2987 RMK A01 T02660066  RH  028%=      5-min Rain = 0
KMC4 192011Z 19009G15KT 27/06 A2987 RMK A01 T02660063  RH  027%=      5-min Rain = 0
KMC4 192012Z 18010KT 27/06 A2987 RMK A01 T02670062  RH  027%=      5-min Rain = 0
KMC4 192013Z 19012KT 27/06 A2987 RMK A01 T02680061  RH  027%=      5-min Rain = 0
KMC4 192014Z 19010KT 27/06 A2987 RMK A01 T02670062  RH  027%=      5-min Rain = 0
KMC4 192015Z 19009KT 27/06 A2987 RMK A01 T02660061  RH  027%=      5-min Rain = 0
KMC4 192016Z 20007KT 27/06 A2987 RMK A01 T02660059  RH  027%=      5-min Rain = 0
KMC4 192017Z 21006KT 27/06 A2987 RMK A01 T02660059  RH  027%=      5-min Rain = 0
KMC4 192018Z 18010KT 27/06 A2987 RMK A01 T02660061  RH  027%=      5-min Rain = 0
KMC4 192019Z 17009KT 27/06 A2987 RMK A01 T02670063  RH  027%=      5-min Rain = 0
KMC4 192020Z 17008KT 27/06 A2987 RMK A01 T02670062  RH  027%=      5-min Rain = 0
KMC4 192021Z 17007KT 27/06 A2987 RMK A01 T02670062  RH  027%=      5-min Rain = 0
KMC4 192022Z 16009KT 27/06 A2987 RMK A01 T02670064  RH  027%=      5-min Rain = 0
KMC4 192023Z 17012KT 27/07 A2987 RMK A01 T02670067  RH  028%=      5-min Rain = 0
KMC4 192024Z 18012KT 27/07 A2987 RMK A01 T02690066  RH  027%=      5-min Rain = 0
KMC4 192025Z 19011G16KT 27/06 A2987 RMK A01 T02670064  RH  027%=      5-min Rain = 0
KMC4 192026Z 18010KT 27/07 A2987 RMK A01 T02670065  RH  028%=      5-min Rain = 0
KMC4 192027Z 18008KT 27/07 A2987 RMK A01 T02680067  RH  028%=      5-min Rain = 0
KMC4 192028Z 17007KT 27/07 A2987 RMK A01 T02690069  RH  028%=      5-min Rain = 0
KMC4 192029Z 15008KT 27/07 A2987 RMK A01 T02700070  RH  028%=      5-min Rain = 0
KMC4 192030Z 14007KT 27/07 A2987 RMK A01 T02700069  RH  028%=      5-min Rain = 0
KMC4 192031Z 16008G13KT 27/07 A2986 RMK A01 T02700071  RH  028%=      5-min Rain = 0
KMC4 192032Z 15013KT 27/07 A2986 RMK A01 T02710072  RH  028%=      5-min Rain = 0
KMC4 192033Z 16009KT 27/07 A2986 RMK A01 T02690069  RH  028%=      5-min Rain = 0
KMC4 192034Z 15009KT 27/07 A2986 RMK A01 T02660070  RH  029%=      5-min Rain = 0
KMC4 192035Z 15009KT 27/07 A2986 RMK A01 T02650071  RH  029%=      5-min Rain = 0
KMC4 192036Z 16009KT 27/07 A2986 RMK A01 T02660072  RH  029%=      5-min Rain = 0
KMC4 192037Z 21011KT 27/07 A2986 RMK A01 T02680070  RH  029%=      5-min Rain = 0
KMC4 192038Z 20012KT 27/07 A2986 RMK A01 T02690067  RH  028%=      5-min Rain = 0
KMC4 192039Z 18008KT 27/07 A2986 RMK A01 T02680068  RH  028%=      5-min Rain = 0
KMC4 192040Z 17010KT 27/07 A2986 RMK A01 T02700067  RH  028%=      5-min Rain = 0
KMC4 192041Z 17008KT 27/07 A2986 RMK A01 T02690066  RH  028%=      5-min Rain = 0
KMC4 192042Z 17007KT 27/07 A2986 RMK A01 T02680068  RH  028%=      5-min Rain = 0
KMC4 192043Z 17005KT 27/07 A2986 RMK A01 T02690066  RH  027%=      5-min Rain = 0
KMC4 192044Z 15005KT 27/07 A2986 RMK A01 T02700067  RH  027%=      5-min Rain = 0
KMC4 192045Z 16009KT 27/07 A2986 RMK A01 T02700070  RH  028%=      5-min Rain = 0
KMC4 192046Z 16012KT 27/07 A2986 RMK A01 T02710072  RH  028%=      5-min Rain = 0
KMC4 192047Z 15011KT 27/07 A2986 RMK A01 T02710072  RH  028%=      5-min Rain = 0
KMC4 192048Z 16014KT 27/07 A2986 RMK A01 T02700072  RH  028%=      5-min Rain = 0
KMC4 192049Z 16011KT 27/07 A2986 RMK A01 T02700071  RH  028%=      5-min Rain = 0
KMC4 192050Z 18009KT 27/07 A2986 RMK A01 T02700070  RH  028%=      5-min Rain = 0
KMC4 192051Z 15009KT 27/07 A2986 RMK A01 T02710070  RH  028%=      5-min Rain = 0
KMC4 192052Z 16011KT 27/07 A2986 RMK A01 T02710071  RH  028%=      5-min Rain = 0
KMC4 192053Z 15010KT 27/07 A2986 RMK A01 T02700070  RH  028%=      5-min Rain = 0
KMC4 192054Z 14010KT 27/07 A2986 RMK A01 T02690071  RH  028%=      5-min Rain = 0
KMC4 192055Z 16010KT 27/07 A2986 RMK A01 T02690070  RH  028%=      5-min Rain = 0
KMC4 192056Z 15010KT 27/07 A2986 RMK A01 T02680068  RH  028%=      5-min Rain = 0
KMC4 192057Z 16010KT 27/07 A2986 RMK A01 T02680068  RH  028%=      5-min Rain = 0
KMC4 192058Z 16009G15KT 27/07 A2986 RMK A01 T02690068  RH  028%=      5-min Rain = 0
KMC4 192059Z 16010KT 27/07 A2986 RMK A01 T02690067  RH  028%=      5-min Rain = 0
KMC4 192100Z 17011KT 27/07 A2986 RMK A01 T02690068  RH  028%=      5-min Rain = 0
KMC4 192101Z 17008KT 27/07 A2986 RMK A01 T02690068  RH  028%=      5-min Rain = 0
KMC4 192102Z 16009KT 27/07 A2986 RMK A01 T02680068  RH  028%=      5-min Rain = 0
KMC4 192103Z 16009KT 27/07 A2986 RMK A01 T02680068  RH  028%=      5-min Rain = 0
KMC4 192104Z 15012KT 27/07 A2986 RMK A01 T02690069  RH  028%=      5-min Rain = 0
KMC4 192105Z 15011KT 27/07 A2985 RMK A01 T02690068  RH  028%=      5-min Rain = 0
KMC4 192106Z 16011KT 27/07 A2986 RMK A01 T02690069  RH  028%=      5-min Rain = 0
KMC4 192107Z 15010KT 27/07 A2985 RMK A01 T02690068  RH  028%=      5-min Rain = 0
KMC4 192108Z 14011KT 27/07 A2985 RMK A01 T02690069  RH  028%=      5-min Rain = 0
KMC4 192109Z 16011KT 27/07 A2985 RMK A01 T02690068  RH  028%=      5-min Rain = 0
KMC4 192110Z 17011KT 27/07 A2985 RMK A01 T02690067  RH  028%=      5-min Rain = 0
KMC4 192111Z 16010KT 27/07 A2985 RMK A01 T02690067  RH  028%=      5-min Rain = 0
KMC4 192112Z 15010KT 27/07 A2985 RMK A01 T02700068  RH  028%=      5-min Rain = 0
KMC4 192113Z 14014KT 27/07 A2985 RMK A01 T02690069  RH  028%=      5-min Rain = 0
KMC4 192114Z 14013KT 27/07 A2985 RMK A01 T02680069  RH  028%=      5-min Rain = 0
KMC4 192115Z 15011KT 27/07 A2985 RMK A01 T02670069  RH  028%=      5-min Rain = 0
KMC4 192116Z 16009KT 27/07 A2985 RMK A01 T02670069  RH  028%=      5-min Rain = 0
KMC4 192117Z 16011KT 27/07 A2985 RMK A01 T02670068  RH  028%=      5-min Rain = 0
KMC4 192118Z 17009KT 27/07 A2985 RMK A01 T02660068  RH  028%=      5-min Rain = 0
KMC4 192119Z 16008KT 27/07 A2985 RMK A01 T02660069  RH  028%=      5-min Rain = 0
KMC4 192120Z 14010KT 27/07 A2985 RMK A01 T02670069  RH  028%=      5-min Rain = 0
KMC4 192121Z 14012G17KT 27/07 A2985 RMK A01 T02680069  RH  028%=      5-min Rain = 0
KMC4 192122Z 15012KT 27/07 A2985 RMK A01 T02670068  RH  028%=      5-min Rain = 0
KMC4 192123Z 15011KT 27/07 A2985 RMK A01 T02660069  RH  028%=      5-min Rain = 0
KMC4 192124Z 16013KT 27/07 A2985 RMK A01 T02660068  RH  028%=      5-min Rain = 0
KMC4 192125Z 16014KT 27/07 A2985 RMK A01 T02660069  RH  028%=      5-min Rain = 0
KMC4 192126Z 16013KT 27/07 A2985 RMK A01 T02660068  RH  028%=      5-min Rain = 0
KMC4 192127Z 15012KT 27/07 A2985 RMK A01 T02660068  RH  028%=      5-min Rain = 0
KMC4 192128Z 16010KT 27/07 A2985 RMK A01 T02650068  RH  028%=      5-min Rain = 0
KMC4 192129Z 17010KT 27/07 A2985 RMK A01 T02650068  RH  028%=      5-min Rain = 0
KMC4 192130Z 15010KT 27/07 A2985 RMK A01 T02650067  RH  028%=      5-min Rain = 0
KMC4 192131Z 15013KT 27/07 A2985 RMK A01 T02650068  RH  029%=      5-min Rain = 0
KMC4 192132Z 15012KT 27/07 A2985 RMK A01 T02660069  RH  028%=      5-min Rain = 0
KMC4 192133Z 16012KT 27/07 A2985 RMK A01 T02670070  RH  028%=      5-min Rain = 0
KMC4 192134Z 16012KT 27/07 A2985 RMK A01 T02670068  RH  028%=      5-min Rain = 0
KMC4 192135Z 15014KT 27/07 A2985 RMK A01 T02650068  RH  028%=      5-min Rain = 0
KMC4 192136Z 15013KT 27/07 A2985 RMK A01 T02650068  RH  029%=      5-min Rain = 0
KMC4 192137Z 15012KT 26/07 A2985 RMK A01 T02640068  RH  029%=      5-min Rain = 0
KMC4 192138Z 15010KT 26/07 A2985 RMK A01 T02640070  RH  029%=      5-min Rain = 0
KMC4 192139Z 15011KT 27/07 A2985 RMK A01 T02660070  RH  029%=      5-min Rain = 0
KMC4 192140Z 15013KT 27/07 A2985 RMK A01 T02670068  RH  028%=      5-min Rain = 0
KMC4 192141Z 15012KT 27/07 A2985 RMK A01 T02660069  RH  029%=      5-min Rain = 0
KMC4 192142Z 15012KT 27/07 A2985 RMK A01 T02660069  RH  029%=      5-min Rain = 0
KMC4 192143Z 15012KT 27/07 A2985 RMK A01 T02660069  RH  028%=      5-min Rain = 0
KMC4 192144Z 16010KT 27/07 A2985 RMK A01 T02650069  RH  029%=      5-min Rain = 0
KMC4 192145Z 16010KT 27/07 A2985 RMK A01 T02650068  RH  029%=      5-min Rain = 0
KMC4 192146Z 16012KT 27/07 A2985 RMK A01 T02660067  RH  028%=      5-min Rain = 0
KMC4 192147Z 17010KT 27/07 A2985 RMK A01 T02660068  RH  028%=      5-min Rain = 0
KMC4 192148Z 17010KT 27/07 A2985 RMK A01 T02660068  RH  028%=      5-min Rain = 0
KMC4 192149Z 16012KT 27/07 A2985 RMK A01 T02670068  RH  028%=      5-min Rain = 0
KMC4 192150Z 16010KT 27/07 A2985 RMK A01 T02660068  RH  028%=      5-min Rain = 0
KMC4 192151Z 16010KT 27/07 A2985 RMK A01 T02660068  RH  028%=      5-min Rain = 0
KMC4 192152Z 17009G15KT 27/07 A2985 RMK A01 T02650069  RH  029%=      5-min Rain = 0
KMC4 192153Z 16011KT 27/07 A2985 RMK A01 T02660069  RH  029%=      5-min Rain = 0
KMC4 192154Z 16011KT 27/07 A2985 RMK A01 T02650068  RH  029%=      5-min Rain = 0
KMC4 192155Z 16011KT 27/07 A2985 RMK A01 T02650068  RH  028%=      5-min Rain = 0
KMC4 192156Z 17010KT 27/07 A2985 RMK A01 T02650068  RH  029%=      5-min Rain = 0
KMC4 192157Z 16011KT 27/07 A2985 RMK A01 T02650068  RH  028%=      5-min Rain = 0
KMC4 192158Z 17010KT 27/07 A2985 RMK A01 T02650067  RH  028%=      5-min Rain = 0
KMC4 192159Z 16010KT 26/07 A2985 RMK A01 T02640067  RH  029%=      5-min Rain = 0
KMC4 192200Z 15009KT 26/07 A2985 RMK A01 T02630069  RH  029%=      5-min Rain = 0
KMC4 192201Z 15009KT 26/07 A2985 RMK A01 T02640071  RH  029%=      5-min Rain = 0
KMC4 192202Z 16011KT 27/07 A2985 RMK A01 T02650070  RH  029%=      5-min Rain = 0
KMC4 192203Z 15012KT 27/07 A2985 RMK A01 T02650068  RH  029%=      5-min Rain = 0
KMC4 192204Z 16012KT 26/07 A2985 RMK A01 T02640069  RH  029%=      5-min Rain = 0
KMC4 192205Z 16011KT 26/07 A2985 RMK A01 T02640068  RH  029%=      5-min Rain = 0
KMC4 192206Z 16011KT 26/07 A2985 RMK A01 T02630068  RH  029%=      5-min Rain = 0
KMC4 192207Z 16011KT 26/07 A2985 RMK A01 T02630068  RH  029%=      5-min Rain = 0
KMC4 192208Z 16009KT 26/07 A2985 RMK A01 T02620068  RH  029%=      5-min Rain = 0
KMC4 192209Z 17009KT 26/07 A2985 RMK A01 T02620069  RH  029%=      5-min Rain = 0
KMC4 192210Z 16010KT 26/07 A2985 RMK A01 T02630069  RH  029%=      5-min Rain = 0
KMC4 192211Z 16013KT 26/07 A2985 RMK A01 T02630069  RH  029%=      5-min Rain = 0
KMC4 192212Z 16011KT 26/07 A2985 RMK A01 T02620068  RH  029%=      5-min Rain = 0
KMC4 192213Z 16012KT 26/07 A2985 RMK A01 T02600068  RH  029%=      5-min Rain = 0
KMC4 192214Z 17011KT 26/07 A2985 RMK A01 T02600068  RH  030%=      5-min Rain = 0
KMC4 192215Z 16011KT 26/07 A2985 RMK A01 T02590068  RH  030%=      5-min Rain = 0
KMC4 192216Z 16009KT 26/07 A2985 RMK A01 T02590068  RH  030%=      5-min Rain = 0
KMC4 192217Z 16012KT 26/07 A2985 RMK A01 T02590068  RH  030%=      5-min Rain = 0
KMC4 192218Z 16010KT 26/07 A2985 RMK A01 T02580068  RH  030%=      5-min Rain = 0
KMC4 192219Z 16011KT 26/07 A2985 RMK A01 T02570068  RH  030%=      5-min Rain = 0
KMC4 192220Z 17011KT 26/07 A2985 RMK A01 T02560068  RH  030%=      5-min Rain = 0
KMC4 192221Z 16012KT 26/07 A2985 RMK A01 T02560068  RH  030%=      5-min Rain = 0
KMC4 192222Z 16010KT 26/07 A2985 RMK A01 T02550068  RH  030%=      5-min Rain = 0
KMC4 192223Z 16011KT 26/07 A2985 RMK A01 T02550068  RH  030%=      5-min Rain = 0
KMC4 192224Z 15011KT 25/07 A2985 RMK A01 T02540068  RH  030%=      5-min Rain = 0
KMC4 192225Z 15011KT 25/07 A2985 RMK A01 T02530068  RH  031%=      5-min Rain = 0
KMC4 192226Z 15012KT 25/07 A2985 RMK A01 T02520068  RH  031%=      5-min Rain = 0
KMC4 192227Z 15011KT 25/07 A2985 RMK A01 T02520068  RH  031%=      5-min Rain = 0
KMC4 192228Z 15012KT 25/07 A2985 RMK A01 T02510068  RH  031%=      5-min Rain = 0
KMC4 192229Z 15010KT 25/07 A2985 RMK A01 T02510068  RH  031%=      5-min Rain = 0
KMC4 192230Z 15012KT 25/07 A2985 RMK A01 T02510068  RH  031%=      5-min Rain = 0
KMC4 192231Z 15013KT 25/07 A2985 RMK A01 T02510067  RH  031%=      5-min Rain = 0
KMC4 192232Z 15010KT 25/07 A2985 RMK A01 T02500067  RH  031%=      5-min Rain = 0
KMC4 192233Z 14012KT 25/07 A2985 RMK A01 T02500068  RH  031%=      5-min Rain = 0
KMC4 192234Z 15011KT 25/07 A2985 RMK A01 T02500068  RH  031%=      5-min Rain = 0
KMC4 192235Z 15011KT 25/07 A2985 RMK A01 T02490068  RH  031%=      5-min Rain = 0
KMC4 192236Z 14011KT 25/07 A2985 RMK A01 T02490067  RH  031%=      5-min Rain = 0
KMC4 192237Z 14009KT 25/07 A2985 RMK A01 T02490067  RH  031%=      5-min Rain = 0
KMC4 192238Z 14009KT 25/07 A2985 RMK A01 T02480069  RH  032%=      5-min Rain = 0
KMC4 192239Z 14012KT 25/07 A2985 RMK A01 T02480068  RH  031%=      5-min Rain = 0
KMC4 192240Z 14011KT 25/07 A2985 RMK A01 T02470068  RH  032%=      5-min Rain = 0
KMC4 192241Z 14010KT 25/07 A2985 RMK A01 T02470068  RH  032%=      5-min Rain = 0
KMC4 192242Z 13008KT 25/07 A2985 RMK A01 T02460069  RH  032%=      5-min Rain = 0
KMC4 192243Z 13008KT 25/07 A2985 RMK A01 T02460069  RH  032%=      5-min Rain = 0
KMC4 192244Z 13010KT 25/07 A2985 RMK A01 T02450068  RH  032%=      5-min Rain = 0
KMC4 192245Z 13010KT 25/07 A2985 RMK A01 T02450068  RH  032%=      5-min Rain = 0
KMC4 192246Z 13010KT 25/07 A2985 RMK A01 T02450069  RH  032%=      5-min Rain = 0
KMC4 192247Z 14010KT 24/07 A2985 RMK A01 T02440069  RH  033%=      5-min Rain = 0
KMC4 192248Z 14010KT 24/07 A2985 RMK A01 T02440069  RH  033%=      5-min Rain = 0
KMC4 192249Z 14009KT 24/07 A2985 RMK A01 T02440069  RH  033%=      5-min Rain = 0
KMC4 192250Z 14008KT 24/07 A2985 RMK A01 T02440069  RH  033%=      5-min Rain = 0
KMC4 192251Z 14008KT 24/07 A2985 RMK A01 T02440069  RH  033%=      5-min Rain = 0
KMC4 192252Z 14010KT 24/07 A2985 RMK A01 T02440069  RH  033%=      5-min Rain = 0
KMC4 192253Z 14009KT 24/07 A2985 RMK A01 T02430069  RH  033%=      5-min Rain = 0
KMC4 192254Z 14009KT 24/07 A2985 RMK A01 T02430069  RH  033%=      5-min Rain = 0
KMC4 192255Z 14009KT 24/07 A2985 RMK A01 T02430069  RH  033%=      5-min Rain = 0
KMC4 192256Z 14009KT 24/07 A2985 RMK A01 T02430070  RH  033%=      5-min Rain = 0
KMC4 192257Z 14009KT 24/07 A2985 RMK A01 T02430070  RH  033%=      5-min Rain = 0
KMC4 192258Z 14012KT 24/07 A2985 RMK A01 T02430070  RH  033%=      5-min Rain = 0
KMC4 192259Z 15011KT 24/07 A2985 RMK A01 T02430069  RH  033%=      5-min Rain = 0
KMC4 192300Z 15011KT 24/07 A2985 RMK A01 T02430069  RH  033%=      5-min Rain = 0
KMC4 192301Z 15009KT 24/07 A2985 RMK A01 T02430069  RH  033%=      5-min Rain = 0
KMC4 192302Z 15012KT 24/07 A2985 RMK A01 T02430069  RH  033%=      5-min Rain = 0
KMC4 192303Z 15010KT 24/07 A2985 RMK A01 T02440069  RH  033%=      5-min Rain = 0
KMC4 192304Z 14010KT 24/07 A2985 RMK A01 T02440069  RH  033%=      5-min Rain = 0
KMC4 192305Z 15009KT 25/07 A2985 RMK A01 T02450070  RH  033%=      5-min Rain = 0
KMC4 192306Z 15010KT 25/07 A2985 RMK A01 T02450069  RH  032%=      5-min Rain = 0
KMC4 192307Z 15010KT 25/07 A2985 RMK A01 T02450069  RH  033%=      5-min Rain = 0
KMC4 192308Z 15010KT 25/07 A2985 RMK A01 T02450069  RH  032%=      5-min Rain = 0
KMC4 192309Z 15011KT 25/07 A2985 RMK A01 T02450069  RH  032%=      5-min Rain = 0
KMC4 192310Z 15009KT 25/07 A2985 RMK A01 T02450070  RH  033%=      5-min Rain = 0
KMC4 192311Z 14009KT 25/07 A2985 RMK A01 T02450070  RH  033%=      5-min Rain = 0
KMC4 192312Z 15013KT 25/07 A2985 RMK A01 T02450070  RH  033%=      5-min Rain = 0
KMC4 192313Z 15010KT 24/07 A2985 RMK A01 T02440069  RH  032%=      5-min Rain = 0
KMC4 192314Z 15013KT 24/07 A2985 RMK A01 T02440069  RH  032%=      5-min Rain = 0
KMC4 192315Z 16012KT 24/07 A2985 RMK A01 T02440068  RH  032%=      5-min Rain = 0
KMC4 192316Z 16012KT 24/07 A2985 RMK A01 T02440067  RH  032%=      5-min Rain = 0
KMC4 192317Z 15010KT 25/07 A2985 RMK A01 T02450068  RH  032%=      5-min Rain = 0
KMC4 192318Z 14010KT 24/07 A2985 RMK A01 T02440068  RH  032%=      5-min Rain = 0
KMC4 192319Z 15010KT 24/07 A2985 RMK A01 T02440069  RH  033%=      5-min Rain = 0
KMC4 192320Z 14008KT 24/07 A2985 RMK A01 T02430070  RH  033%=      5-min Rain = 0
KMC4 192321Z 14011KT 24/07 A2985 RMK A01 T02430070  RH  033%=      5-min Rain = 0
KMC4 192322Z 14012KT 24/07 A2985 RMK A01 T02420070  RH  033%=      5-min Rain = 0
KMC4 192323Z 14012KT 24/07 A2985 RMK A01 T02410070  RH  033%=      5-min Rain = 0
KMC4 192324Z 14012KT 24/07 A2985 RMK A01 T02410070  RH  034%=      5-min Rain = 0
KMC4 192325Z 14011KT 24/07 A2985 RMK A01 T02390070  RH  034%=      5-min Rain = 0
KMC4 192326Z 14014KT 24/07 A2985 RMK A01 T02390070  RH  034%=      5-min Rain = 0
KMC4 192327Z 14014KT 24/07 A2985 RMK A01 T02390071  RH  034%=      5-min Rain = 0
KMC4 192328Z 15014KT 24/07 A2985 RMK A01 T02390071  RH  034%=      5-min Rain = 0
KMC4 192329Z 14013KT 24/07 A2985 RMK A01 T02380071  RH  034%=      5-min Rain = 0
KMC4 192330Z 14014KT 24/07 A2985 RMK A01 T02380071  RH  034%=      5-min Rain = 0
KMC4 192331Z 14012KT 24/07 A2985 RMK A01 T02370072  RH  035%=      5-min Rain = 0
KMC4 192332Z 14013KT 24/07 A2985 RMK A01 T02360071  RH  035%=      5-min Rain = 0
KMC4 192333Z 14013KT 24/07 A2985 RMK A01 T02360071  RH  035%=      5-min Rain = 0
KMC4 192334Z 14012KT 24/07 A2985 RMK A01 T02360072  RH  035%=      5-min Rain = 0
KMC4 192335Z 14011KT 24/07 A2985 RMK A01 T02350072  RH  035%=      5-min Rain = 0
KMC4 192336Z 14011KT 24/07 A2985 RMK A01 T02350072  RH  035%=      5-min Rain = 0
KMC4 192337Z 13012KT 23/07 A2985 RMK A01 T02340072  RH  035%=      5-min Rain = 0
KMC4 192338Z 14012KT 23/07 A2985 RMK A01 T02340071  RH  035%=      5-min Rain = 0
KMC4 192339Z 14011KT 23/07 A2985 RMK A01 T02340072  RH  035%=      5-min Rain = 0
KMC4 192340Z 13013KT 23/07 A2985 RMK A01 T02330072  RH  035%=      5-min Rain = 0
KMC4 192341Z 14012KT 23/07 A2985 RMK A01 T02330072  RH  035%=      5-min Rain = 0
KMC4 192342Z 13011KT 23/07 A2985 RMK A01 T02330072  RH  036%=      5-min Rain = 0
KMC4 192343Z 14012KT 23/07 A2985 RMK A01 T02320073  RH  036%=      5-min Rain = 0
KMC4 192344Z 14009KT 23/07 A2985 RMK A01 T02310072  RH  036%=      5-min Rain = 0
KMC4 192345Z 13011KT 23/07 A2985 RMK A01 T02310073  RH  036%=      5-min Rain = 0
KMC4 192346Z 14011KT 23/07 A2985 RMK A01 T02300074  RH  037%=      5-min Rain = 0
KMC4 192347Z 14011KT 23/08 A2985 RMK A01 T02300075  RH  037%=      5-min Rain = 0
KMC4 192348Z 14012KT 23/07 A2985 RMK A01 T02290074  RH  037%=      5-min Rain = 0
KMC4 192349Z 14011KT 23/08 A2985 RMK A01 T02290075  RH  037%=      5-min Rain = 0
KMC4 192350Z 14010KT 23/08 A2985 RMK A01 T02280075  RH  037%=      5-min Rain = 0
KMC4 192351Z 13008KT 23/08 A2985 RMK A01 T02280076  RH  038%=      5-min Rain = 0
KMC4 192352Z 14010KT 23/08 A2985 RMK A01 T02270076  RH  038%=      5-min Rain = 0
KMC4 192353Z 13011KT 23/08 A2985 RMK A01 T02260077  RH  038%=      5-min Rain = 0
KMC4 192354Z 14011KT 23/08 A2985 RMK A01 T02260077  RH  038%=      5-min Rain = 0
KMC4 192355Z 14011KT 23/08 A2985 RMK A01 T02260077  RH  038%=      5-min Rain = 0
KMC4 192356Z 14009KT 23/08 A2985 RMK A01 T02260078  RH  039%=      5-min Rain = 0
KMC4 192357Z 14010KT 23/08 A2985 RMK A01 T02250078  RH  039%=      5-min Rain = 0
KMC4 192358Z 14009KT 23/08 A2985 RMK A01 T02250078  RH  039%=      5-min Rain = 0
KMC4 192359Z 14009KT 22/08 A2986 RMK A01 T02240078  RH  039%=      5-min Rain = 0
KMC4 200000Z 14011KT 22/08 A2986 RMK A01 T02240078  RH  039%=      5-min Rain = 0
KMC4 200001Z 14011KT 22/08 A2986 RMK A01 T02240078  RH  039%=      5-min Rain = 0
KMC4 200002Z 14012KT 22/08 A2986 RMK A01 T02240078  RH  039%=      5-min Rain = 0
KMC4 200003Z 14011KT 22/08 A2986 RMK A01 T02240079  RH  039%=      5-min Rain = 0
KMC4 200004Z 14011KT 22/08 A2985 RMK A01 T02230079  RH  039%=      5-min Rain = 0
KMC4 200005Z 14012KT 22/08 A2985 RMK A01 T02230079  RH  039%=      5-min Rain = 0
KMC4 200006Z 14012KT 22/08 A2986 RMK A01 T02230078  RH  039%=      5-min Rain = 0
KMC4 200007Z 14010KT 22/08 A2986 RMK A01 T02220078  RH  039%=      5-min Rain = 0
KMC4 200008Z 14011KT 22/08 A2986 RMK A01 T02220078  RH  040%=      5-min Rain = 0
KMC4 200009Z 14011KT 22/08 A2986 RMK A01 T02210077  RH  040%=      5-min Rain = 0
KMC4 200010Z 14011KT 22/08 A2986 RMK A01 T02210077  RH  040%=      5-min Rain = 0
KMC4 200011Z 14011KT 22/08 A2986 RMK A01 T02200077  RH  040%=      5-min Rain = 0
KMC4 200012Z 14011KT 22/08 A2986 RMK A01 T02200077  RH  040%=      5-min Rain = 0
KMC4 200013Z 14012KT 22/08 A2986 RMK A01 T02200077  RH  040%=      5-min Rain = 0
KMC4 200014Z 14010KT 22/08 A2986 RMK A01 T02190077  RH  040%=      5-min Rain = 0
KMC4 200015Z 14011KT 22/08 A2986 RMK A01 T02190077  RH  040%=      5-min Rain = 0
KMC4 200016Z 14011KT 22/08 A2986 RMK A01 T02180077  RH  040%=      5-min Rain = 0
KMC4 200017Z 14010KT 22/08 A2986 RMK A01 T02180078  RH  040%=      5-min Rain = 0
KMC4 200018Z 14009KT 22/08 A2986 RMK A01 T02180078  RH  041%=      5-min Rain = 0
KMC4 200019Z 14008KT 22/08 A2986 RMK A01 T02170078  RH  041%=      5-min Rain = 0
KMC4 200020Z 14010KT 22/08 A2986 RMK A01 T02150078  RH  041%=      5-min Rain = 0
KMC4 200021Z 14010KT 22/08 A2986 RMK A01 T02150078  RH  041%=      5-min Rain = 0
KMC4 200022Z 14011KT 22/08 A2986 RMK A01 T02150078  RH  041%=      5-min Rain = 0
KMC4 200023Z 14009KT 22/08 A2986 RMK A01 T02150078  RH  041%=      5-min Rain = 0
KMC4 200024Z 14009KT 21/08 A2986 RMK A01 T02140079  RH  042%=      5-min Rain = 0
KMC4 200025Z 14010KT 21/08 A2986 RMK A01 T02130079  RH  042%=      5-min Rain = 0
KMC4 200026Z 14009KT 21/08 A2986 RMK A01 T02130079  RH  042%=      5-min Rain = 0
KMC4 200027Z 14009KT 21/08 A2986 RMK A01 T02120080  RH  042%=      5-min Rain = 0
KMC4 200028Z 14009KT 21/08 A2986 RMK A01 T02120080  RH  043%=      5-min Rain = 0
KMC4 200029Z 14011KT 21/08 A2986 RMK A01 T02110081  RH  043%=      5-min Rain = 0
KMC4 200030Z 14009KT 21/08 A2986 RMK A01 T02110081  RH  043%=      5-min Rain = 0
KMC4 200031Z 14010KT 21/08 A2986 RMK A01 T02110081  RH  043%=      5-min Rain = 0
KMC4 200032Z 14011KT 21/08 A2986 RMK A01 T02100082  RH  044%=      5-min Rain = 0
KMC4 200033Z 14010KT 21/08 A2986 RMK A01 T02110082  RH  044%=      5-min Rain = 0
KMC4 200034Z 14010KT 21/08 A2986 RMK A01 T02110082  RH  044%=      5-min Rain = 0
KMC4 200035Z 15010KT 21/08 A2986 RMK A01 T02100083  RH  044%=      5-min Rain = 0
KMC4 200036Z 14010KT 21/08 A2986 RMK A01 T02100083  RH  044%=      5-min Rain = 0
KMC4 200037Z 14012KT 21/08 A2986 RMK A01 T02090083  RH  044%=      5-min Rain = 0
KMC4 200038Z 15011KT 21/08 A2986 RMK A01 T02090084  RH  044%=      5-min Rain = 0
KMC4 200039Z 14011KT 21/08 A2986 RMK A01 T02090084  RH  045%=      5-min Rain = 0
KMC4 200040Z 14011KT 21/09 A2986 RMK A01 T02090085  RH  045%=      5-min Rain = 0
KMC4 200041Z 14011KT 21/09 A2986 RMK A01 T02080085  RH  045%=      5-min Rain = 0
KMC4 200042Z 14011KT 21/09 A2986 RMK A01 T02080085  RH  045%=      5-min Rain = 0
KMC4 200043Z 14011KT 21/09 A2987 RMK A01 T02080085  RH  045%=      5-min Rain = 0
KMC4 200044Z 14011KT 21/09 A2987 RMK A01 T02070085  RH  045%=      5-min Rain = 0
KMC4 200045Z 14010KT 21/09 A2987 RMK A01 T02070085  RH  046%=      5-min Rain = 0
KMC4 200046Z 13011KT 21/09 A2987 RMK A01 T02060085  RH  046%=      5-min Rain = 0
KMC4 200047Z 14011KT 21/09 A2987 RMK A01 T02060085  RH  046%=      5-min Rain = 0
KMC4 200048Z 13010KT 21/09 A2987 RMK A01 T02060085  RH  046%=      5-min Rain = 0
KMC4 200049Z 13011KT 21/09 A2987 RMK A01 T02050085  RH  046%=      5-min Rain = 0
KMC4 200050Z 13011KT 21/09 A2987 RMK A01 T02050085  RH  046%=      5-min Rain = 0
KMC4 200051Z 14012KT 21/09 A2987 RMK A01 T02050085  RH  046%=      5-min Rain = 0
KMC4 200052Z 13012KT 21/09 A2987 RMK A01 T02050085  RH  046%=      5-min Rain = 0
KMC4 200053Z 13010KT 21/09 A2987 RMK A01 T02050085  RH  046%=      5-min Rain = 0
KMC4 200054Z 13014KT 21/09 A2987 RMK A01 T02050086  RH  046%=      5-min Rain = 0
KMC4 200055Z 14012KT 21/09 A2987 RMK A01 T02050086  RH  046%=      5-min Rain = 0
KMC4 200056Z 13012KT 21/09 A2987 RMK A01 T02050085  RH  046%=      5-min Rain = 0
KMC4 200057Z 13012KT 21/09 A2987 RMK A01 T02050085  RH  046%=      5-min Rain = 0
KMC4 200058Z 14012KT 21/09 A2987 RMK A01 T02050085  RH  046%=      5-min Rain = 0
KMC4 200059Z 14012KT 21/09 A2987 RMK A01 T02050085  RH  046%=      5-min Rain = 0
KMC4 200100Z 14011KT 21/09 A2987 RMK A01 T02050086  RH  046%=      5-min Rain = 0
KMC4 200101Z 14011KT 20/09 A2987 RMK A01 T02040086  RH  046%=      5-min Rain = 0
KMC4 200102Z 14011KT 20/09 A2987 RMK A01 T02040086  RH  046%=      5-min Rain = 0
KMC4 200103Z 14010KT 20/09 A2987 RMK A01 T02030086  RH  047%=      5-min Rain = 0
KMC4 200104Z 14011KT 20/09 A2987 RMK A01 T02030086  RH  047%=      5-min Rain = 0
KMC4 200105Z 14011KT 20/09 A2987 RMK A01 T02020086  RH  047%=      5-min Rain = 0
KMC4 200106Z 13009KT 20/09 A2987 RMK A01 T02020086  RH  047%=      5-min Rain = 0
KMC4 200107Z 13010KT 20/09 A2987 RMK A01 T02010086  RH  047%=      5-min Rain = 0
KMC4 200108Z 14011KT 20/09 A2987 RMK A01 T02010087  RH  048%=      5-min Rain = 0
KMC4 200109Z 14010KT 20/09 A2987 RMK A01 T02010087  RH  048%=      5-min Rain = 0
KMC4 200110Z 13009KT 20/09 A2987 RMK A01 T02010087  RH  048%=      5-min Rain = 0
KMC4 200111Z 14009KT 20/09 A2987 RMK A01 T02000087  RH  048%=      5-min Rain = 0
KMC4 200112Z 13009KT 20/09 A2987 RMK A01 T01990087  RH  048%=      5-min Rain = 0
KMC4 200113Z 13008KT 20/09 A2987 RMK A01 T01990087  RH  048%=      5-min Rain = 0
KMC4 200114Z 13008KT 20/09 A2987 RMK A01 T01990087  RH  049%=      5-min Rain = 0
KMC4 200115Z 13008KT 20/09 A2987 RMK A01 T01990088  RH  049%=      5-min Rain = 0
KMC4 200116Z 14007KT 20/09 A2987 RMK A01 T01980088  RH  049%=      5-min Rain = 0
KMC4 200117Z 13007KT 20/09 A2987 RMK A01 T01980088  RH  049%=      5-min Rain = 0
KMC4 200118Z 14008KT 20/09 A2987 RMK A01 T01970088  RH  049%=      5-min Rain = 0
KMC4 200119Z 14009KT 20/09 A2987 RMK A01 T01960088  RH  049%=      5-min Rain = 0
KMC4 200120Z 13008KT 20/09 A2987 RMK A01 T01960088  RH  050%=      5-min Rain = 0
KMC4 200121Z 13009KT 20/09 A2987 RMK A01 T01960088  RH  050%=      5-min Rain = 0
KMC4 200122Z 13009KT 20/09 A2987 RMK A01 T01960088  RH  050%=      5-min Rain = 0
KMC4 200123Z 13009KT 20/09 A2987 RMK A01 T01960089  RH  050%=      5-min Rain = 0
KMC4 200124Z 13008KT 20/09 A2987 RMK A01 T01960089  RH  050%=      5-min Rain = 0
KMC4 200125Z 13007KT 20/09 A2987 RMK A01 T01960089  RH  050%=      5-min Rain = 0
KMC4 200126Z 13010KT 20/09 A2987 RMK A01 T01950089  RH  050%=      5-min Rain = 0
KMC4 200127Z 13010KT 20/09 A2987 RMK A01 T01950089  RH  050%=      5-min Rain = 0
KMC4 200128Z 13010KT 20/09 A2987 RMK A01 T01950089  RH  050%=      5-min Rain = 0
KMC4 200129Z 13008KT 20/09 A2987 RMK A01 T01950089  RH  050%=      5-min Rain = 0
KMC4 200130Z 13008KT 20/09 A2987 RMK A01 T01960090  RH  050%=      5-min Rain = 0
KMC4 200131Z 14008KT 20/09 A2987 RMK A01 T01950090  RH  051%=      5-min Rain = 0
KMC4 200132Z 13007KT 19/09 A2987 RMK A01 T01940090  RH  051%=      5-min Rain = 0
KMC4 200133Z 13008KT 19/09 A2987 RMK A01 T01930090  RH  051%=      5-min Rain = 0
KMC4 200134Z 14008KT 19/09 A2987 RMK A01 T01930091  RH  052%=      5-min Rain = 0
KMC4 200135Z 13008KT 19/09 A2987 RMK A01 T01920091  RH  052%=      5-min Rain = 0
KMC4 200136Z 13009KT 19/09 A2987 RMK A01 T01920091  RH  052%=      5-min Rain = 0
KMC4 200137Z 13008KT 19/09 A2987 RMK A01 T01920091  RH  052%=      5-min Rain = 0
KMC4 200138Z 13008KT 19/09 A2987 RMK A01 T01920091  RH  052%=      5-min Rain = 0
KMC4 200139Z 14008KT 19/09 A2987 RMK A01 T01920092  RH  052%=      5-min Rain = 0
KMC4 200140Z 13008KT 19/09 A2987 RMK A01 T01910091  RH  052%=      5-min Rain = 0
KMC4 200141Z 13006KT 19/09 A2987 RMK A01 T01910092  RH  053%=      5-min Rain = 0
KMC4 200142Z 13008KT 19/09 A2987 RMK A01 T01900092  RH  053%=      5-min Rain = 0
KMC4 200143Z 14009KT 19/09 A2987 RMK A01 T01910092  RH  053%=      5-min Rain = 0
KMC4 200144Z 13008KT 19/09 A2987 RMK A01 T01910092  RH  053%=      5-min Rain = 0
KMC4 200145Z 13006KT 19/09 A2987 RMK A01 T01910092  RH  053%=      5-min Rain = 0
KMC4 200146Z 13008KT 19/09 A2987 RMK A01 T01900092  RH  053%=      5-min Rain = 0
KMC4 200147Z 13007KT 19/09 A2987 RMK A01 T01900092  RH  053%=      5-min Rain = 0
KMC4 200148Z 12007KT 19/09 A2987 RMK A01 T01900093  RH  053%=      5-min Rain = 0
KMC4 200149Z 12007KT 19/09 A2987 RMK A01 T01890093  RH  053%=      5-min Rain = 0
KMC4 200150Z 12007KT 19/09 A2987 RMK A01 T01890093  RH  054%=      5-min Rain = 0
KMC4 200151Z 12007KT 19/09 A2987 RMK A01 T01890093  RH  054%=      5-min Rain = 0
KMC4 200152Z 13008KT 19/09 A2987 RMK A01 T01890093  RH  054%=      5-min Rain = 0
KMC4 200153Z 13010KT 19/09 A2987 RMK A01 T01890094  RH  054%=      5-min Rain = 0
KMC4 200154Z 12008KT 19/10 A2987 RMK A01 T01900095  RH  054%=      5-min Rain = 0
KMC4 200155Z 12008KT 19/10 A2987 RMK A01 T01900095  RH  054%=      5-min Rain = 0
KMC4 200156Z 12009KT 19/10 A2987 RMK A01 T01900095  RH  054%=      5-min Rain = 0
KMC4 200157Z 12008KT 19/10 A2987 RMK A01 T01900096  RH  054%=      5-min Rain = 0
KMC4 200158Z 13009KT 19/10 A2987 RMK A01 T01900096  RH  054%=      5-min Rain = 0
KMC4 200159Z 14007KT 19/10 A2987 RMK A01 T01910097  RH  054%=      5-min Rain = 0
KMC4 200200Z 13008KT 19/10 A2987 RMK A01 T01900097  RH  055%=      5-min Rain = 0
KMC4 200201Z 13009KT 19/10 A2988 RMK A01 T01900098  RH  055%=      5-min Rain = 0
KMC4 200202Z 14010KT 19/10 A2988 RMK A01 T01900098  RH  055%=      5-min Rain = 0
KMC4 200203Z 14009KT 19/10 A2988 RMK A01 T01900098  RH  055%=      5-min Rain = 0
KMC4 200204Z 14011KT 19/10 A2988 RMK A01 T01900099  RH  055%=      5-min Rain = 0
KMC4 200205Z 13011KT 19/10 A2988 RMK A01 T01910099  RH  055%=      5-min Rain = 0
KMC4 200206Z 14010KT 19/10 A2988 RMK A01 T01910100  RH  055%=      5-min Rain = 0
KMC4 200207Z 14010KT 19/10 A2988 RMK A01 T01910099  RH  055%=      5-min Rain = 0
KMC4 200208Z 14010KT 19/10 A2988 RMK A01 T01910100  RH  056%=      5-min Rain = 0
KMC4 200209Z 14011KT 19/10 A2988 RMK A01 T01910100  RH  056%=      5-min Rain = 0
KMC4 200210Z 14012KT 19/10 A2988 RMK A01 T01910101  RH  056%=      5-min Rain = 0
KMC4 200211Z 14013KT 19/10 A2988 RMK A01 T01910101  RH  056%=      5-min Rain = 0
KMC4 200212Z 14011KT 19/10 A2988 RMK A01 T01910101  RH  056%=      5-min Rain = 0
KMC4 200213Z 14011KT 19/10 A2988 RMK A01 T01910101  RH  056%=      5-min Rain = 0
KMC4 200214Z 14012KT 19/10 A2988 RMK A01 T01910101  RH  056%=      5-min Rain = 0
KMC4 200215Z 14010KT 19/10 A2988 RMK A01 T01910101  RH  056%=      5-min Rain = 0
KMC4 200216Z 14010KT 19/10 A2988 RMK A01 T01900101  RH  056%=      5-min Rain = 0
KMC4 200217Z 14012KT 19/10 A2988 RMK A01 T01890101  RH  056%=      5-min Rain = 0
KMC4 200218Z 14013KT 19/10 A2988 RMK A01 T01900102  RH  057%=      5-min Rain = 0
KMC4 200219Z 14011KT 19/10 A2988 RMK A01 T01900102  RH  057%=      5-min Rain = 0
KMC4 200220Z 14011KT 19/10 A2988 RMK A01 T01890101  RH  057%=      5-min Rain = 0
KMC4 200221Z 14012KT 19/10 A2987 RMK A01 T01900102  RH  057%=      5-min Rain = 0
KMC4 200222Z 14011KT 19/10 A2987 RMK A01 T01890101  RH  057%=      5-min Rain = 0
KMC4 200223Z 15012KT 19/10 A2988 RMK A01 T01890102  RH  057%=      5-min Rain = 0
KMC4 200224Z 15012KT 19/10 A2988 RMK A01 T01890102  RH  057%=      5-min Rain = 0
KMC4 200225Z 14012KT 19/10 A2988 RMK A01 T01900102  RH  057%=      5-min Rain = 0
KMC4 200226Z 15012KT 19/10 A2988 RMK A01 T01900102  RH  057%=      5-min Rain = 0
KMC4 200227Z 15012KT 19/10 A2988 RMK A01 T01890102  RH  057%=      5-min Rain = 0
KMC4 200228Z 15012KT 19/10 A2988 RMK A01 T01900103  RH  057%=      5-min Rain = 0
KMC4 200229Z 15015KT 19/10 A2988 RMK A01 T01900102  RH  057%=      5-min Rain = 0
KMC4 200230Z 15013KT 19/10 A2988 RMK A01 T01900103  RH  057%=      5-min Rain = 0
KMC4 200231Z 15012KT 19/10 A2988 RMK A01 T01910103  RH  057%=      5-min Rain = 0
KMC4 200232Z 15013KT 19/10 A2988 RMK A01 T01900103  RH  057%=      5-min Rain = 0
KMC4 200233Z 15014KT 19/10 A2988 RMK A01 T01900103  RH  057%=      5-min Rain = 0
KMC4 200234Z 16014KT 19/10 A2988 RMK A01 T01900103  RH  057%=      5-min Rain = 0
KMC4 200235Z 15012KT 19/10 A2988 RMK A01 T01900103  RH  057%=      5-min Rain = 0
KMC4 200236Z 15014KT 19/10 A2988 RMK A01 T01900103  RH  057%=      5-min Rain = 0
KMC4 200237Z 15014KT 19/10 A2988 RMK A01 T01900104  RH  057%=      5-min Rain = 0
KMC4 200238Z 15015KT 19/10 A2988 RMK A01 T01900104  RH  057%=      5-min Rain = 0
KMC4 200239Z 15015KT 19/10 A2988 RMK A01 T01900104  RH  057%=      5-min Rain = 0
KMC4 200240Z 16015KT 19/10 A2988 RMK A01 T01910104  RH  057%=      5-min Rain = 0
KMC4 200241Z 15015KT 19/10 A2988 RMK A01 T01910104  RH  057%=      5-min Rain = 0
KMC4 200242Z 16017KT 19/11 A2988 RMK A01 T01920105  RH  057%=      5-min Rain = 0
KMC4 200243Z 16015KT 19/11 A2988 RMK A01 T01920105  RH  057%=      5-min Rain = 0
KMC4 200244Z 15017KT 19/11 A2988 RMK A01 T01920105  RH  057%=      5-min Rain = 0
KMC4 200245Z 15016KT 19/11 A2988 RMK A01 T01910105  RH  057%=      5-min Rain = 0
KMC4 200246Z 15016KT 19/11 A2988 RMK A01 T01910105  RH  057%=      5-min Rain = 0
KMC4 200247Z 15018KT 19/11 A2988 RMK A01 T01910105  RH  057%=      5-min Rain = 0
KMC4 200248Z 15017KT 19/11 A2988 RMK A01 T01910105  RH  057%=      5-min Rain = 0
KMC4 200249Z 16015KT 19/11 A2988 RMK A01 T01920106  RH  057%=      5-min Rain = 0
KMC4 200250Z 15016KT 19/11 A2988 RMK A01 T01910106  RH  058%=      5-min Rain = 0
KMC4 200251Z 15018KT 19/11 A2988 RMK A01 T01910106  RH  058%=      5-min Rain = 0
KMC4 200252Z 15016KT 19/11 A2988 RMK A01 T01910106  RH  058%=      5-min Rain = 0
KMC4 200253Z 15015KT 19/11 A2989 RMK A01 T01910106  RH  058%=      5-min Rain = 0
KMC4 200254Z 15015KT 19/11 A2989 RMK A01 T01910106  RH  058%=      5-min Rain = 0
KMC4 200255Z 15016KT 19/11 A2989 RMK A01 T01900107  RH  058%=      5-min Rain = 0
KMC4 200256Z 15015KT 19/11 A2989 RMK A01 T01900107  RH  058%=      5-min Rain = 0
KMC4 200257Z 16014KT 19/11 A2989 RMK A01 T01900106  RH  058%=      5-min Rain = 0
KMC4 200258Z 15014KT 19/11 A2989 RMK A01 T01900107  RH  058%=      5-min Rain = 0
KMC4 200259Z 15014KT 19/11 A2989 RMK A01 T01890107  RH  059%=      5-min Rain = 0
KMC4 200300Z 16016KT 19/11 A2989 RMK A01 T01890107  RH  059%=      5-min Rain = 0
KMC4 200301Z 16014KT 19/11 A2989 RMK A01 T01890107  RH  059%=      5-min Rain = 0
KMC4 200302Z 15016KT 19/11 A2989 RMK A01 T01900107  RH  059%=      5-min Rain = 0
KMC4 200303Z 15014KT 19/11 A2989 RMK A01 T01900107  RH  059%=      5-min Rain = 0
KMC4 200304Z 14014KT 19/11 A2989 RMK A01 T01900107  RH  059%=      5-min Rain = 0
KMC4 200305Z 15015KT 19/11 A2989 RMK A01 T01890107  RH  059%=      5-min Rain = 0
KMC4 200306Z 15014KT 19/11 A2989 RMK A01 T01890107  RH  059%=      5-min Rain = 0
KMC4 200307Z 14016KT 19/11 A2989 RMK A01 T01900108  RH  059%=      5-min Rain = 0
KMC4 200308Z 14014KT 19/11 A2989 RMK A01 T01900108  RH  059%=      5-min Rain = 0
KMC4 200309Z 13015KT 19/11 A2989 RMK A01 T01900108  RH  059%=      5-min Rain = 0
KMC4 200310Z 14017KT 19/11 A2989 RMK A01 T01900109  RH  059%=      5-min Rain = 0
KMC4 200311Z 14016KT 19/11 A2989 RMK A01 T01910109  RH  059%=      5-min Rain = 0
KMC4 200312Z 14014KT 19/11 A2989 RMK A01 T01910109  RH  059%=      5-min Rain = 0
KMC4 200313Z 13016KT 19/11 A2989 RMK A01 T01900109  RH  059%=      5-min Rain = 0
KMC4 200314Z 13015KT 19/11 A2989 RMK A01 T01900109  RH  059%=      5-min Rain = 0
KMC4 200315Z 14013KT 19/11 A2989 RMK A01 T01900109  RH  059%=      5-min Rain = 0
KMC4 200316Z 13013KT 19/11 A2989 RMK A01 T01890109  RH  059%=      5-min Rain = 0
KMC4 200317Z 14015KT 19/11 A2989 RMK A01 T01890108  RH  060%=      5-min Rain = 0
KMC4 200318Z 14015KT 19/11 A2989 RMK A01 T01890109  RH  060%=      5-min Rain = 0
KMC4 200319Z 14014KT 19/11 A2989 RMK A01 T01890109  RH  060%=      5-min Rain = 0
KMC4 200320Z 13014KT 19/11 A2989 RMK A01 T01890109  RH  060%=      5-min Rain = 0
KMC4 200321Z 14013KT 19/11 A2989 RMK A01 T01880109  RH  060%=      5-min Rain = 0
KMC4 200322Z 13012KT 19/11 A2989 RMK A01 T01880109  RH  060%=      5-min Rain = 0
KMC4 200323Z 13014KT 19/11 A2989 RMK A01 T01870109  RH  060%=      5-min Rain = 0
KMC4 200324Z 13013KT 19/11 A2989 RMK A01 T01870109  RH  060%=      5-min Rain = 0
KMC4 200325Z 14013KT 19/11 A2989 RMK A01 T01880109  RH  060%=      5-min Rain = 0
KMC4 200326Z 13013KT 19/11 A2989 RMK A01 T01880109  RH  060%=      5-min Rain = 0
KMC4 200327Z 13012KT 19/11 A2989 RMK A01 T01880109  RH  060%=      5-min Rain = 0
KMC4 200328Z 13014KT 19/11 A2989 RMK A01 T01870109  RH  061%=      5-min Rain = 0
KMC4 200329Z 13013KT 19/11 A2989 RMK A01 T01870110  RH  061%=      5-min Rain = 0
KMC4 200330Z 13013KT 19/11 A2989 RMK A01 T01880109  RH  060%=      5-min Rain = 0
KMC4 200331Z 13015KT 19/11 A2989 RMK A01 T01880110  RH  060%=      5-min Rain = 0
KMC4 200332Z 13012KT 19/11 A2989 RMK A01 T01880110  RH  060%=      5-min Rain = 0
KMC4 200333Z 13012KT 19/11 A2989 RMK A01 T01890110  RH  060%=      5-min Rain = 0
KMC4 200334Z 13013KT 19/11 A2989 RMK A01 T01880110  RH  060%=      5-min Rain = 0
KMC4 200335Z 13014KT 19/11 A2989 RMK A01 T01880110  RH  060%=      5-min Rain = 0
KMC4 200336Z 13013KT 19/11 A2989 RMK A01 T01880110  RH  060%=      5-min Rain = 0
KMC4 200337Z 14013KT 19/11 A2989 RMK A01 T01880110  RH  060%=      5-min Rain = 0
KMC4 200338Z 13014KT 19/11 A2989 RMK A01 T01880110  RH  061%=      5-min Rain = 0
KMC4 200339Z 14014KT 19/11 A2989 RMK A01 T01880110  RH  060%=      5-min Rain = 0
KMC4 200340Z 14015KT 19/11 A2989 RMK A01 T01880110  RH  060%=      5-min Rain = 0
KMC4 200341Z 14013KT 19/11 A2989 RMK A01 T01900111  RH  060%=      5-min Rain = 0
KMC4 200342Z 14012KT 19/11 A2989 RMK A01 T01890110  RH  060%=      5-min Rain = 0
KMC4 200343Z 13011KT 19/11 A2989 RMK A01 T01880110  RH  060%=      5-min Rain = 0
KMC4 200344Z 14012KT 19/11 A2989 RMK A01 T01880111  RH  061%=      5-min Rain = 0
KMC4 200345Z 14014KT 19/11 A2989 RMK A01 T01870111  RH  061%=      5-min Rain = 0
KMC4 200346Z 13014KT 19/11 A2989 RMK A01 T01880111  RH  061%=      5-min Rain = 0
KMC4 200347Z 14013KT 19/11 A2989 RMK A01 T01890111  RH  060%=      5-min Rain = 0
KMC4 200348Z 14012KT 19/11 A2989 RMK A01 T01890111  RH  060%=      5-min Rain = 0
KMC4 200349Z 14011KT 19/11 A2989 RMK A01 T01890111  RH  060%=      5-min Rain = 0
KMC4 200350Z 14012KT 19/11 A2989 RMK A01 T01880111  RH  061%=      5-min Rain = 0
KMC4 200351Z 14012KT 19/11 A2989 RMK A01 T01880111  RH  061%=      5-min Rain = 0
KMC4 200352Z 14012KT 19/11 A2989 RMK A01 T01870111  RH  061%=      5-min Rain = 0
KMC4 200353Z 14013KT 19/11 A2989 RMK A01 T01870111  RH  061%=      5-min Rain = 0
KMC4 200354Z 14013KT 19/11 A2989 RMK A01 T01870111  RH  061%=      5-min Rain = 0
KMC4 200355Z 14012KT 19/11 A2989 RMK A01 T01870111  RH  061%=      5-min Rain = 0
KMC4 200356Z 14012KT 19/11 A2989 RMK A01 T01870111  RH  061%=      5-min Rain = 0
KMC4 200357Z 14014KT 19/11 A2989 RMK A01 T01870111  RH  061%=      5-min Rain = 0
KMC4 200358Z 14016KT 19/11 A2989 RMK A01 T01870111  RH  061%=      5-min Rain = 0
KMC4 200359Z 14016KT 19/11 A2989 RMK A01 T01880112  RH  061%=      5-min Rain = 0
KMC4 200400Z 14015KT 19/11 A2989 RMK A01 T01890112  RH  061%=      5-min Rain = 0
KMC4 200401Z 14013KT 19/11 A2989 RMK A01 T01890111  RH  060%=      5-min Rain = 0
KMC4 200402Z 14016KT 19/11 A2989 RMK A01 T01900112  RH  061%=      5-min Rain = 0
KMC4 200403Z 14015KT 19/11 A2989 RMK A01 T01890112  RH  061%=      5-min Rain = 0
KMC4 200404Z 14013KT 19/11 A2989 RMK A01 T01890112  RH  061%=      5-min Rain = 0
KMC4 200405Z 15012KT 19/11 A2989 RMK A01 T01890111  RH  061%=      5-min Rain = 0
KMC4 200406Z 15014KT 19/11 A2989 RMK A01 T01880112  RH  061%=      5-min Rain = 0
KMC4 200407Z 15012KT 19/11 A2989 RMK A01 T01880112  RH  061%=      5-min Rain = 0
KMC4 200408Z 15015KT 19/11 A2989 RMK A01 T01880112  RH  061%=      5-min Rain = 0
KMC4 200409Z 15015KT 19/11 A2989 RMK A01 T01880112  RH  061%=      5-min Rain = 0
KMC4 200410Z 15013KT 19/11 A2989 RMK A01 T01880112  RH  061%=      5-min Rain = 0
KMC4 200411Z 15014KT 19/11 A2989 RMK A01 T01880111  RH  061%=      5-min Rain = 0
KMC4 200412Z 15012KT 19/11 A2989 RMK A01 T01880112  RH  061%=      5-min Rain = 0
KMC4 200413Z 15012KT 19/11 A2989 RMK A01 T01880112  RH  061%=      5-min Rain = 0
KMC4 200414Z 15013KT 19/11 A2989 RMK A01 T01870112  RH  062%=      5-min Rain = 0
KMC4 200415Z 15013KT 19/11 A2989 RMK A01 T01870112  RH  062%=      5-min Rain = 0
KMC4 200416Z 15015KT 19/11 A2989 RMK A01 T01860112  RH  062%=      5-min Rain = 0
KMC4 200417Z 15014KT 19/11 A2989 RMK A01 T01860112  RH  062%=      5-min Rain = 0
KMC4 200418Z 14013KT 19/11 A2989 RMK A01 T01860112  RH  062%=      5-min Rain = 0
KMC4 200419Z 14013KT 19/11 A2989 RMK A01 T01860112  RH  062%=      5-min Rain = 0
KMC4 200420Z 15013KT 19/11 A2989 RMK A01 T01860112  RH  062%=      5-min Rain = 0
KMC4 200421Z 15012KT 19/11 A2989 RMK A01 T01860112  RH  062%=      5-min Rain = 0
KMC4 200422Z 15014KT 19/11 A2989 RMK A01 T01860112  RH  062%=      5-min Rain = 0
KMC4 200423Z 15013KT 19/11 A2989 RMK A01 T01850112  RH  062%=      5-min Rain = 0
KMC4 200424Z 15012KT 19/11 A2989 RMK A01 T01850112  RH  062%=      5-min Rain = 0
KMC4 200425Z 15013G18KT 19/11 A2989 RMK A01 T01850112  RH  062%=      5-min Rain = 0
KMC4 200426Z 15014KT 19/11 A2989 RMK A01 T01850112  RH  062%=      5-min Rain = 0
KMC4 200427Z 15015KT 19/11 A2989 RMK A01 T01850112  RH  063%=      5-min Rain = 0
KMC4 200428Z 15015KT 19/11 A2989 RMK A01 T01850112  RH  062%=      5-min Rain = 0
KMC4 200429Z 15014KT 19/11 A2989 RMK A01 T01860113  RH  062%=      5-min Rain = 0
KMC4 200430Z 15015KT 19/11 A2989 RMK A01 T01860113  RH  062%=      5-min Rain = 0
KMC4 200431Z 14015KT 19/11 A2989 RMK A01 T01860113  RH  062%=      5-min Rain = 0
KMC4 200432Z 15015KT 19/11 A2989 RMK A01 T01850113  RH  062%=      5-min Rain = 0
KMC4 200433Z 15015KT 19/11 A2989 RMK A01 T01860112  RH  062%=      5-min Rain = 0
KMC4 200434Z 15015KT 19/11 A2989 RMK A01 T01860112  RH  062%=      5-min Rain = 0
KMC4 200435Z 15014KT 19/11 A2989 RMK A01 T01860113  RH  062%=      5-min Rain = 0
KMC4 200436Z 15014KT 19/11 A2989 RMK A01 T01860113  RH  062%=      5-min Rain = 0
KMC4 200437Z 15013KT 19/11 A2989 RMK A01 T01860113  RH  062%=      5-min Rain = 0
KMC4 200438Z 15013KT 19/11 A2989 RMK A01 T01860113  RH  062%=      5-min Rain = 0
KMC4 200439Z 15015KT 19/11 A2989 RMK A01 T01850113  RH  063%=      5-min Rain = 0
KMC4 200440Z 15014KT 19/11 A2989 RMK A01 T01850113  RH  063%=      5-min Rain = 0
KMC4 200441Z 15015KT 19/11 A2989 RMK A01 T01850112  RH  062%=      5-min Rain = 0
KMC4 200442Z 15016KT 19/11 A2989 RMK A01 T01860113  RH  062%=      5-min Rain = 0
KMC4 200443Z 15013KT 19/11 A2989 RMK A01 T01860113  RH  062%=      5-min Rain = 0
KMC4 200444Z 15012KT 19/11 A2989 RMK A01 T01850113  RH  063%=      5-min Rain = 0
KMC4 200445Z 15015KT 18/11 A2989 RMK A01 T01840113  RH  063%=      5-min Rain = 0
KMC4 200446Z 15015KT 18/11 A2989 RMK A01 T01840112  RH  063%=      5-min Rain = 0
KMC4 200447Z 15014KT 18/11 A2989 RMK A01 T01840113  RH  063%=      5-min Rain = 0
KMC4 200448Z 15014KT 18/11 A2989 RMK A01 T01840113  RH  063%=      5-min Rain = 0
KMC4 200449Z 15013KT 18/11 A2989 RMK A01 T01840113  RH  063%=      5-min Rain = 0
KMC4 200450Z 15013G18KT 18/11 A2989 RMK A01 T01840112  RH  063%=      5-min Rain = 0
KMC4 200451Z 15012KT 18/11 A2989 RMK A01 T01830113  RH  064%=      5-min Rain = 0
KMC4 200452Z 14014KT 18/11 A2989 RMK A01 T01820112  RH  064%=      5-min Rain = 0
KMC4 200453Z 15014KT 18/11 A2988 RMK A01 T01820112  RH  064%=      5-min Rain = 0
KMC4 200454Z 15013KT 18/11 A2988 RMK A01 T01820113  RH  064%=      5-min Rain = 0
KMC4 200455Z 15013KT 18/11 A2988 RMK A01 T01820113  RH  064%=      5-min Rain = 0
KMC4 200456Z 15014KT 18/11 A2988 RMK A01 T01820112  RH  064%=      5-min Rain = 0
KMC4 200457Z 15013KT 18/11 A2988 RMK A01 T01820113  RH  064%=      5-min Rain = 0
KMC4 200458Z 15015G21KT 18/11 A2988 RMK A01 T01820112  RH  064%=      5-min Rain = 0
KMC4 200459Z 15013KT 18/11 A2988 RMK A01 T01820113  RH  064%=      5-min Rain = 0
KMC4 200500Z 15015KT 18/11 A2988 RMK A01 T01820112  RH  064%=      5-min Rain = 0
KMC4 200501Z 15014KT 18/11 A2988 RMK A01 T01820113  RH  064%=      5-min Rain = 0
KMC4 200502Z 15015KT 18/11 A2988 RMK A01 T01820113  RH  064%=      5-min Rain = 0
KMC4 200503Z 15014KT 18/11 A2988 RMK A01 T01820113  RH  064%=      5-min Rain = 0
KMC4 200504Z 15015KT 18/11 A2988 RMK A01 T01820113  RH  064%=      5-min Rain = 0
KMC4 200505Z 15014KT 18/11 A2988 RMK A01 T01820112  RH  064%=      5-min Rain = 0
KMC4 200506Z 15015KT 18/11 A2988 RMK A01 T01820112  RH  064%=      5-min Rain = 0
KMC4 200507Z 15015KT 18/11 A2988 RMK A01 T01820112  RH  064%=      5-min Rain = 0
KMC4 200508Z 15017KT 18/11 A2988 RMK A01 T01820113  RH  064%=      5-min Rain = 0
KMC4 200509Z 16017KT 18/11 A2988 RMK A01 T01840113  RH  063%=      5-min Rain = 0
KMC4 200510Z 16017KT 18/11 A2988 RMK A01 T01840113  RH  063%=      5-min Rain = 0
KMC4 200511Z 15014KT 18/11 A2988 RMK A01 T01840113  RH  063%=      5-min Rain = 0
KMC4 200512Z 15013KT 18/11 A2988 RMK A01 T01840113  RH  063%=      5-min Rain = 0
KMC4 200513Z 15016KT 18/11 A2988 RMK A01 T01840113  RH  063%=      5-min Rain = 0
KMC4 200514Z 15016KT 18/11 A2988 RMK A01 T01830113  RH  063%=      5-min Rain = 0
KMC4 200515Z 16014KT 18/11 A2988 RMK A01 T01840113  RH  063%=      5-min Rain = 0
KMC4 200516Z 15015KT 18/11 A2988 RMK A01 T01840113  RH  063%=      5-min Rain = 0
KMC4 200517Z 15015KT 18/11 A2988 RMK A01 T01840113  RH  063%=      5-min Rain = 0
KMC4 200518Z 15015KT 18/11 A2988 RMK A01 T01840113  RH  063%=      5-min Rain = 0
KMC4 200519Z 15017KT 18/11 A2988 RMK A01 T01840113  RH  063%=      5-min Rain = 0
KMC4 200520Z 15016KT 18/11 A2988 RMK A01 T01840113  RH  063%=      5-min Rain = 0
KMC4 200521Z 16016KT 19/11 A2988 RMK A01 T01850113  RH  063%=      5-min Rain = 0
KMC4 200522Z 16017KT 19/11 A2988 RMK A01 T01850113  RH  063%=      5-min Rain = 0
KMC4 200523Z 16017KT 19/11 A2988 RMK A01 T01850114  RH  063%=      5-min Rain = 0
KMC4 200524Z 15016KT 19/11 A2988 RMK A01 T01860114  RH  063%=      5-min Rain = 0
KMC4 200525Z 15016KT 19/11 A2988 RMK A01 T01860114  RH  063%=      5-min Rain = 0
KMC4 200526Z 16017KT 19/11 A2988 RMK A01 T01870114  RH  062%=      5-min Rain = 0
KMC4 200527Z 16014KT 19/11 A2988 RMK A01 T01880114  RH  062%=      5-min Rain = 0
KMC4 200528Z 16014KT 19/11 A2989 RMK A01 T01880114  RH  062%=      5-min Rain = 0
KMC4 200529Z 16014KT 19/11 A2988 RMK A01 T01870114  RH  062%=      5-min Rain = 0
KMC4 200530Z 15015KT 19/11 A2988 RMK A01 T01870114  RH  063%=      5-min Rain = 0
KMC4 200531Z 15017KT 19/11 A2988 RMK A01 T01860114  RH  063%=      5-min Rain = 0
KMC4 200532Z 15015KT 19/11 A2988 RMK A01 T01880114  RH  062%=      5-min Rain = 0
KMC4 200533Z 16014KT 19/11 A2988 RMK A01 T01880114  RH  062%=      5-min Rain = 0
KMC4 200534Z 15016KT 19/11 A2988 RMK A01 T01880114  RH  062%=      5-min Rain = 0
KMC4 200535Z 16015KT 19/12 A2988 RMK A01 T01880115  RH  062%=      5-min Rain = 0
KMC4 200536Z 15017KT 19/11 A2988 RMK A01 T01880114  RH  062%=      5-min Rain = 0
KMC4 200537Z 15016KT 19/11 A2988 RMK A01 T01880114  RH  062%=      5-min Rain = 0
KMC4 200538Z 16016KT 19/11 A2988 RMK A01 T01890114  RH  062%=      5-min Rain = 0
KMC4 200539Z 16015KT 19/11 A2988 RMK A01 T01890114  RH  062%=      5-min Rain = 0
KMC4 200540Z 16016KT 19/12 A2988 RMK A01 T01890115  RH  062%=      5-min Rain = 0
KMC4 200541Z 16015G20KT 19/12 A2988 RMK A01 T01890115  RH  062%=      5-min Rain = 0
KMC4 200542Z 16015KT 19/12 A2988 RMK A01 T01890115  RH  062%=      5-min Rain = 0
KMC4 200543Z 15015KT 19/12 A2988 RMK A01 T01890115  RH  062%=      5-min Rain = 0
KMC4 200544Z 15013KT 19/12 A2988 RMK A01 T01890115  RH  062%=      5-min Rain = 0
KMC4 200545Z 15015KT 19/12 A2988 RMK A01 T01890115  RH  062%=      5-min Rain = 0
KMC4 200546Z 15015KT 19/11 A2988 RMK A01 T01880114  RH  062%=      5-min Rain = 0
KMC4 200547Z 15016KT 19/12 A2988 RMK A01 T01880115  RH  062%=      5-min Rain = 0
KMC4 200548Z 15015KT 19/12 A2988 RMK A01 T01880115  RH  062%=      5-min Rain = 0
KMC4 200549Z 15014KT 19/12 A2988 RMK A01 T01880115  RH  062%=      5-min Rain = 0
KMC4 200550Z 15016KT 19/12 A2988 RMK A01 T01880115  RH  062%=      5-min Rain = 0
KMC4 200551Z 16017KT 19/12 A2988 RMK A01 T01880115  RH  062%=      5-min Rain = 0
KMC4 200552Z 16015KT 19/12 A2988 RMK A01 T01890115  RH  062%=      5-min Rain = 0
KMC4 200553Z 15015KT 19/12 A2988 RMK A01 T01890115  RH  062%=      5-min Rain = 0
KMC4 200554Z 15013KT 19/11 A2988 RMK A01 T01890114  RH  062%=      5-min Rain = 0
KMC4 200555Z 16015KT 19/12 A2987 RMK A01 T01890115  RH  062%=      5-min Rain = 0
KMC4 200556Z 15012KT 19/11 A2987 RMK A01 T01890114  RH  062%=      5-min Rain = 0
KMC4 200557Z 15012KT 19/11 A2987 RMK A01 T01890114  RH  062%=      5-min Rain = 0
KMC4 200558Z 15011KT 19/12 A2987 RMK A01 T01880115  RH  062%=      5-min Rain = 0
KMC4 200559Z 15010KT 19/12 A2987 RMK A01 T01880115  RH  062%=      5-min Rain = 0

Page generated in 0.1412 seconds.